Race Results for
Snelling Road Race
Snelling, CA
(Event Information)
View By:
Road Race on 02/27/2010

Note: Ranking points are NOT upgrade points. An explanation of ranking points can be found here.


Men - Cat 5 - A

 Place Points NameCity, StateTime USAC #BibTeam
1280.77Neema Assemi   Fresno, CA00:00:00.00 306675  167 Sierra Pacific Racing
2291.01Chris Hernikl   Pleasant Hill, CA00:00:00.00 304027  166 Taleo Racing
3301.25Byron Anson   West Sacramento, CA00:00:00.00 304735  161 Davis Bike Club Race Team
4311.49Raoul MartinBlouin   Walnut Creek, CA00:00:00.00 303631  174 Taleo Racing
5321.73Gary Biehl   Sacramento, CA00:00:00.00 86778  152 
6331.97James Maltbie   Brentwood , CA00:00:00.00 271086  173 
7342.21Seth Callahan   Sanfrancisco, CA00:00:00.00 304160  153 Team Roaring Mouse
8352.45Jacob Berkman   San Francisco, CA00:00:00.00 303643  197 Unattached
9362.69Kirk Evans   Sacramento, CA00:00:00.00 259534  163 Ikon Cycles Race Team
10372.93Jeff Slaton   Davis, CA00:00:00.00 293126  185 Davis Bike Club
11383.17Daniel Stevens   Cayucos Ca00:00:00.00 304754  188 
12393.41dave dunn   Walnut Creek, CA00:00:00.00 303907  162 Wells Fargo Racing Team
13403.65Tyler Swartz   San Francisco, CA00:00:00.00 304004  189 Team Roaring Mouse
14413.89Gonzalo Carrillo   Fremont, CA00:00:00.00 308032  198 Team Fremont/FFBC
15424.13Ryan Ashford   Santa Rosa, CA00:00:00.00 304270  151 Team Touch
16434.37Greg Tsutaoka   Oakland, CA00:00:00.00 296665  157 Berkeley Bicycle Club (BBC)
17Christian PARKER   00:00:00.00  177 
18454.85Ian Charles   Tiburon, CA00:00:00.00 303336  199 Echelon/ZTeam
19465.09Joshua Lopez   Alamo, CA00:00:00.00 305647  172 Los Gatos
20475.33Nicholas Konwest   San Francisco, CA00:00:00.00 303871  170 Team Roaring Mouse
21485.57Ryan Alvey   Sacramento, CA00:00:00.00 274522  150 Davis Bike Club
22495.81Eddie Sahyoun   Rocklin, CA00:00:00.00 291352  183 Victory Velo
23506.05Amir Weiss   Sunnyvale, CA00:00:00.00 305014  195 Los Gatos
24516.29Benjamin Green   San Francisco, CA00:00:00.00 303913  164 Dolce Vita Cycling
25526.53Patrick Gordon   Vacaville, CA00:00:00.00 290498  165 Team Precision
26536.77Kevin Comerford   Livermore, CA00:00:00.00 158585  156 Eden Bicycles
27547.01Brandon Doolan   Lodi, CA00:00:00.00 304254  160 n/a
28557.25Michael White   Folsom, CA00:00:00.00 299962  196 Team Bicycles Plus/Sierra Neva
29567.49Gary PHELPS   Pleasanton, CA00:00:00.00 337504  179 
DNSRyan Gibson   Mountain View, CA00:00:00.00 295319   Alto Velo
DNSClay Dossa   Auburn, CA00:00:00.00 303734   Victory Velo
DNSAlejandro Cortez   Guadalajara00:00:00.00 290128   Team Fremont/FFBC Powered by C
DNSBob Hervatine   Prather, CA00:00:00.00 286383   Rubber Soul/CSC Racing Team
DNSJason Wagner   Sacramento, CA00:00:00.00 297789  194 Squadra Abruzzo
DNSJeff Taylor   Mill Valley, CA00:00:00.00 264478  193 Above Category Racing
DNSGilbert Tarin   Knightsen, CA00:00:00.00 252241  191 Taleo Racing
DNSTodd Riley   Clovis, CA00:00:00.00 303961  182 CSC Rubber Soul
DNSMark Stern   Folsom, CA00:00:00.00 272223  187 
DNSDavid Siegel   Berkeley, CA00:00:00.00 287699  184 
DNSGreg Ries   Sacramento, CA00:00:00.00 270570  181 Squadra Abruzzo
DNSAmit Paz   Danville, CA00:00:00.00 203861  178 Taleo Racing
DNSJoe ORNELAS   Dublin, CA00:00:00.00 170549  175 
DNSkevin leong   Oakland, CA00:00:00.00 303230  171 
DNSJosh Keel   Morgan Hill, CA00:00:00.00 194966  169 Rio Strada Racing
DNSToby Katz   Salinas, CA00:00:00.00 290732  168 Velo Club Monterey Racing
DNSFernando COLMENARES   Newark, CA00:00:00.00 224131  155 Team Integrate / FFBC p/b Chip
DNSErik Camacho   San Jose, CA00:00:00.00 303224  154 Team Fremont/FFBC powered by C
DNPRichard Pitra   Granite Bay, CA00:00:00.00 303729  180 Squadra Abruzzo
DNPJoshua Taylor   Sanfrancisco, CA00:00:00.00 287071  192 Mission Cycling
DNPMike Tan   San Francisco, CA00:00:00.00 298860  190 Team Roaring Mouse
DNPBastian Sopora   Livermore, CA00:00:00.00 293919  186 Team Fremont/FFBC powered by C
DNPTodd Osterberg   Roseville, CA00:00:00.00 299874  176 unattached
DNPMichael Cosgrove   Fremont, CA00:00:00.00 303893  158 Team Fremont/FFBC powered by C
DNPMatthew Cox   Walnut Creek, CA00:00:00.00 302521  159 

Men - Cat 5 - B

 Place Points NameCity, StateTime USAC #BibTeam
1419.92Will Patterson   Stanford, CA00:00:00.00 257436  234 Whole Athlete
2424.62Will Masterman   Martinez, CA00:00:00.00 306981  229 
3429.32scott heather   Chico, CA00:00:00.00 306577  217 Chico Corsa
4434.02ERIC HOUSTON   Antelope, CA00:00:00.00 284959  220 
5438.72Jon Keyzer   Fort Collins, CO00:00:00.00 298334  221 Chico Corsa Cycling Team
6443.42Aaron Branham   Henderson, NV00:00:00.00 305878  205 Team Revolutions
7448.12Daniel Hertel   Arroyo Grande, CA00:00:00.00 300030  218 Central Coast Tire CCT
8452.82Scott Sommerfeld   Manteca, CA00:00:00.00 288687  240 Fun Sport Bikes Cycling Team
9457.52Lance Loveday   Auburn, CA00:00:00.00 305459  227 Victory Velo
10462.22Wisor Fritz   Santa Rosa, CA00:00:00.00 247599  247 Breakaway Bikes
11466.92Steven Schorer   Granite Bay, CA00:00:00.00 290547  238 Rio Strada Racing
12471.62Michael Cochran   Sacramento, CA00:00:00.00 297795  208 Bullseye - East Sac
13476.32Chris Hawley   Turlock, CA00:00:00.00 253470  216 CoreTechs
14481.02John Ricketts   Mount Hermon, CA00:00:00.00 307333  236 
15485.72Justin Fahnestock   Englewood, CO00:00:00.00 304369  212 
16490.42Amos Fishbein   Pismo Beach, CA00:00:00.00 300035  214 Central Coast Tire
17495.12jack backus   Oakland, CA00:00:00.00 306356  202 
18499.82Bob Loux   Modesto, CA00:00:00.00 287104  226 Fun Sports Bikes Cycling Team
19504.52Daniel Castellani   Turlock, CA00:00:00.00 306441  206 Fun Sport Bikes Cycling Team
20509.22Dean Fantham   Burlingame, CA00:00:00.00 280850  213 Peninsula Velo/Pomodoro
21513.92Brandon Tyler   Sanmateo, CA00:00:00.00 298307  246 Peninsula Velo/Pomodoro
22518.62Jeremiah Kille   Aptos, CA00:00:00.00 304508  222 taleo racing
23523.32Kenny Bailey   Folsom, CA00:00:00.00 305104  203 Body Concepts
24528.02Roger Steuble   Jackson, CA00:00:00.00 305013  242 Team Revolutions
25532.72Jack Arney   Lincoln, CA00:00:00.00 301427  201 Folsom Bike
26537.42Erik Nelson   Roseville, CA00:00:00.00 302958  233 Kinetic Cycles
27542.12John Depew   El Dorado Hills, CA00:00:00.00 304092  209 Body Concepts
28546.82Bill Shisler   Folsom, CA00:00:00.00 306982  239 Team Revolutions
29551.52William FacklerHug   Menlopark, CA00:00:00.00 306834  211 Coretechs
30556.22Carlos Perez Gautrin   San Diego, CA00:00:00.00 307176  235 SJBC
31560.92Rudy Garcez   Merced, CA00:00:00.00 306243  215 
32565.62Jawad Yousofi   Livermore, CA00:00:00.00 306048  248 Taleo Racing
33570.32robert zirkle   Oakland, CA00:00:00.00 358748  249 
DNSDaniel Nathanson   Millbrae, CA00:00:00.00 303766  232 Peninsula Velo / Pomodoro
DNSAron Digumarthi   Cupertino, CA00:00:00.00 303522  210 
DNSChris Martinez   Hercules, CA00:00:00.00 279813  228 Berkeley Bicycle Club (BBC)
DNSRay MCFADDEN   Oakland, CA00:00:00.00 378245  231 
DNSDexter Aaron   San Carlos, CA00:00:00.00 304105  200 Peninsula Velo
DNSTom CHALLAN   Angels Camp, CA00:00:00.00 311543  207 
DNPMark Statema   Spokane, WA00:00:00.00 303646  241 
DNPSAMMY TRUJILLO   Rancho Cordova, CA00:00:00.00 286935  245 
DNPChris Toshok   San Francisco, CA00:00:00.00 295329  244 
DNPRoy Taylor   Castro Valley, CA00:00:00.00 304312  243 Team Fremont/FFBC pb Chipotle
DNPOliver Ryan   Sausalito, CA00:00:00.00 304360  237 self
DNPTom McElroy   Truckee, CA00:00:00.00 296294  230 TRUCKEE BICYCLE TEAM
DNPTodd Lewis   Salida, CA00:00:00.00 21117  225 Fun Sport Bikes Cycling Team
DNPDavid Law   Mountain View, CA00:00:00.00 307384  224 
DNPRobert Knaggs   Lodi, CA00:00:00.00 244287  223 Williams Cycling/Delta Velo
DNPTim Holme   Sanfrancisco, CA00:00:00.00 306800  219 Stanford University
DNPJohn Becker   Sanfrancisco, CA00:00:00.00 284814  204 Team Roaring Mouse

Men - Cat 4

 Place Points NameCity, StateTime USAC #BibTeam
1310.92Henry Scholz   San Francisco, CA00:00:00.00 267795  473 Team Roaring Mouse
2317.26Jason Arinno   Elk Grove, CA00:00:00.00 260928  403 Ikon Cycles Race Team
3323.60Michael Stoner   Tucson, AZ00:00:00.00 287280  482 
4329.94Michael Gaiman   San Francisco, CA00:00:00.00 299144  431 Mission Cycling
5336.28Lei Deng   Daly City, CA00:00:00.00 239454  423 Third Pillar
6342.62Jay Simons   San Francisco, CA00:00:00.00 236927  476 Third Pillar
7348.96Mike Gonzales   San Mateo, CA00:00:00.00 205006  434 Ikon Cycles Race Team
8355.30Steven Au   Burlingame, CA00:00:00.00 91064  406 Team Roaring Mouse
9361.64Eugene Kim   Huntington Beach, CA00:00:00.00 303809  443 Mission Cycling
10367.98Ryan Odell   Sacramento, CA00:00:00.00 288200  460 Davis Bike Club
11374.32Brian McLean   Los Gatos, CA00:00:00.00 278289  455 SugarCRM
12380.66Jon Stevens   San Francisco, CA00:00:00.00 303462  480 Dolce Vita Cycling
13387.00Josh Felder   Menlo Park, CA00:00:00.00 292894  429 Form Fitness
14393.34Thomas Gross   San Francisco, CA00:00:00.00 263396  438 Dolce Vita
15399.68James Phillips   Santa Cruz, CA00:00:00.00 220094  499 Squadra Ovest Cycling
16406.02James Berry   San Francisco, CA00:00:00.00 271681  410 Dolce Vita Cycling
17412.36Peter Sobrero   Sausalito, CA00:00:00.00 254359  478 Above Category Racing
18418.70Gary AANERUD   Camarillo, CA00:00:00.00 251665  400 Team Bicycles Plus/Sierra Neva
19425.04Daniel Lebson   Folsom, CA00:00:00.00 295237  446 Rio Strada Racing
20431.38Robin McKinney   Lincoln, CA00:00:00.00 276168  454 VictoryVelo
21437.72Jim Elam   Mustang, OK00:00:00.00 273123  402 Luzvimin Racing Team
22444.06Mitch Boehs   Livingston, CA00:00:00.00 237309  411 Fun Sport Bikes Cycling Team
23450.40John Roberts   San Francisco, CA00:00:00.00 270329  469 Dolce Vita
24456.74Allen Brumm   Foster City, CA00:00:00.00 195431  414 Webcor/Alto Velo
25463.08Stephen Wassather   Santa Cruz, CA00:00:00.00 269058  491 Rio Strada Racing
26469.42William Buckingham   Ross, CA00:00:00.00 127538  415 
27475.76Jason Brasel   Nashville, TN00:00:00.00 287349  413 Davis Bike Club
28482.10Ross Trenary   Oakland, CA00:00:00.00 255259  486 Metromint Cycling
29488.44Willem Voorthuijsen   Morristown, NJ00:00:00.00 259694  490 Sportgenic/Squadra Ovest
30494.78Robert Manly   San Francisco, CA00:00:00.00 272128  451 Metromint Cycling
31501.12Rob Leever   Citrus Heights, CA00:00:00.00 267651  447 Rio Strada Racing
32507.46Kevin White   San Francisco, CA00:00:00.00 256199  493 Godspeed Courier
33513.80Nathanael Dunn   Fair Oaks, CA00:00:00.00 290357  427 Rio Strada Racing
34520.14Denin Sahovic   Sunnyvale, CA00:00:00.00 271126  471 Los Gatos
35526.48Torgen Hiehle   Carmichael , CA00:00:00.00 195356  440 Sacramento Golden Wheelmen
36532.82Andreas Schulten   Cameron Park, CA00:00:00.00 248096  474 Bicycle Planet
37539.16Richard Siegel   Mill Valley, CA00:00:00.00 287184  475 Above Category Racing
38545.50Alex Trevena   Windsor, CA00:00:00.00 287387  487 COLAVITA RACING-NORCAL
39551.84Rob Brandt   Ennis, MT00:00:00.00 298803  412 Kryki Sports
40558.18Erik Camacho   San Jose, CA00:00:00.00 303224  498 Team Fremont/FFBC powered by C
41564.52Zach Starnes   San Francisco, CA00:00:00.00 275960  479 
42570.86Mike Ashton   Oakland, CA00:00:00.00 302651  405 Dolce Vita Cycling
43577.20David Doll   Merced, CA00:00:00.00 281768  424 Stanislaus/Merlock Velo
44583.54Blair Peterson   Mill Valley, CA00:00:00.00 118422  463 Above Category Racing
45589.88Mark King   Livermore, CA00:00:00.00 136967  444 Team Integrate/FFBC powered by
DNSAndrew Adelman   Portola Valley, CA00:00:00.00 300501   CoreTechs Cycling Team
DNSMike Schaumloeffel   Boulder, CO00:00:00.00 286890  472 Berkeley Bicycle Club (BBC)
DNSCaden Taylor   Tucson, AZ00:00:00.00 240890  484 Form Fitness
DNSAdrian Tieslau   Kings Beach, CA00:00:00.00 271946  485 NA
DNSMichael Vondergeest   Sacramento, CA00:00:00.00 166716  489 Rio Strada Racing
DNSRobert Werner   San Carlos, CA00:00:00.00 236490  492 Webcor/Alto Velo
DNSStephen Youtsey   Los Gatos, CA00:00:00.00 102258  494 Dolce Vita Cycling
DNSJared Prolo   San Francisco, CA00:00:00.00 204463  467 Team Roaring Mouse
DNSFrank Rollo   Greenbrae, CA00:00:00.00 203170  470 The Olympic Club
DNSAaron Phillips   Brentwood, CA00:00:00.00 273263  464 Williams Cycling
DNSTerence Potter   Oakland, CA00:00:00.00 250905  466 Berkeley Bicycle Club (BBC)
DNSNaveen Molloy   Sanfrancisco, CA00:00:00.00 283139  456 Metromint Cycling
DNSThomas Luttrell   San Francisco, CA00:00:00.00 235966  450 DIVINE ELECTRIC NORCAL
DNSBob McCamish   Roseville, CA00:00:00.00 285998  453 Rio Strada Racing
DNSShaun Lindsay   Mountain View, CA00:00:00.00 211053  448 Webcor/Alto Velo
DNSAlexander Hsing   Stanford, CA00:00:00.00 272582  442 Webcor/Alto Velo
DNSStephen Grimes   Sacramento, CA00:00:00.00 261152  437 Davis Bike Club
DNSBenjamin Green   San Francisco, CA00:00:00.00 303913  436 Dolce Vita Cycling
DNSJames Gordon   San Francisco, CA00:00:00.00 271557  435 Dolce Vita Cycling
DNSRobert Gaukel   Santa Cruz, CA00:00:00.00 261233  432 Bicycle Trip
DNSChris Dufour   Pleasanton, CA00:00:00.00 302616  426 Taleo Racing
DNSLuke ASHCRAFT   San Francisco, CA00:00:00.00 222002  404 Dolce Vita Cycling
DNPEdward Ceaser   San Francisco, CA00:00:00.00 283838  418 Team Roaring Mouse
DNPEric Clauss   San Francisco, CA00:00:00.00 198040  419 Squadra Ovest Cycling
DNPMichael Baxter   Fremont, CA00:00:00.00 292026  409 Team Fremont/FFBC p/b Chipotle
DNPJeffrey Buscheck   Pleasanton, CA00:00:00.00 283386  416 Christian Cycling/Hammer Nutri
DNPJohn Carrino   Palo Alto, CA00:00:00.00 303620  417 Joselyn's Bicycles/Palantir/Bu
DNPCharles Potts   Reno, NV00:00:00.00 291533  497 Kryki Sports
DNPRicardo Contreras   Panorama City, CA00:00:00.00 272584  496 University of California-Santa
DNPJames Hanacek   Fair Oaks, CA00:00:00.00 196180  495 Rio Strada Racing
DNPKevin Tufts   Cameron Park, CA00:00:00.00 243434  488 Bicycle Planet
DNPJeff Taylor   Mill Valley, CA00:00:00.00 264478  483 Above Category Racing
DNPLiam Stewart   San Francisco, CA00:00:00.00 271049  481 Team Roaring Mouse
DNPRobert Smith   Gold River , CA00:00:00.00 299828  477 Rio Strada Racing
DNPJuan Raigoza   Redwood City, CA00:00:00.00 219477  468 Webcor/Alto Velo
DNPIvan Poddubnyy   San Jose, CA00:00:00.00 266310  465 Webcor/AltoVelo
DNPJeffrey Palileo   American Canyon, CA00:00:00.00 224717  462 Squadra Ovest Cycling
DNPSteven Ohlhaber   Chicago00:00:00.00 223376  461 Dolce Vita Cycling
DNPRyan Oakes   Chico, CA00:00:00.00 258824  459 Bicycle Planet
DNPDerek Novaes   West Sacramento, CA00:00:00.00 274484  458 Rio Strada Racing
DNPPaul Ngo   San Jose, CA00:00:00.00 275571  457 Team Roaring Mouse
DNPHenry Mar   San Bruno, CA00:00:00.00 217433  452 Team Roaring Mouse
DNPAaron Lombardi   Elk Grove, CA00:00:00.00 258261  449 Rio Strada Racing
DNPChris King   San Francisco, CA00:00:00.00 245892  445 Dolce Vita Cycling
DNPWilliam Ho   Fremont, CA00:00:00.00 125065  441 Webcor/Alto Velo
DNPNicholas Hack   Berkeley, CA00:00:00.00 281233  439 Team Roaring Mouse
DNPBrendan Glueck   El Cerrito, CA00:00:00.00 275797  433 NA
DNPMark Fiori   Folsom, CA00:00:00.00 112253  430 Davis Bike Club
DNPRyan Ettl   Folsom, CA00:00:00.00 252994  428 Bicycle Planet
DNPTravis Dubose   Houston00:00:00.00 285589  425 Webcor/Alto Velo
DNPSean Dawson   San Francisco, CA00:00:00.00 286341  422 Team Roaring Mouse
DNPRichard Coyle   Granite Bay, CA00:00:00.00 277158  421 Rio Strada Racing
DNPReed Cote   San Francisco, CA00:00:00.00 243613  420 Third Pillar
DNPBarrett Ausman   San Jose, CA00:00:00.00 186327  407 Webcor/Alto Velo
DNPFrancisco Azevedo   Santa Rosa, CA00:00:00.00 219166  408 Squadra Ovest Cycling
DNPSaeed Abedi   Mountain View, CA00:00:00.00 172270  401 Webcor/Alto Velo

Men - Cat 3

 Place Points NameCity, StateTime USAC #BibTeam
1Eamon Lucas   00:00:00.00  343 Team Specialized Racing
2334.98Frank Spiteri   San Mateo, CA00:00:00.00 236118  376 Peninsula Velo/Pomodoro
3339.43Mark Fairman   San Francisco, CA00:00:00.00 270120  318 Metromint Cycling
4343.88Luther Kopf   Oakland, CA00:00:00.00 205705  337 Dolce Vita Cycling
5348.33Jim Riley   Oakalnd, CA00:00:00.00 287039  367 Godspeed Courier
6352.78Eliot Logan   Palo Alto, CA00:00:00.00 182819  342 Webcor/Alto Velo
7357.23Sean McDonald   Wallace, CA00:00:00.00 262357  346 Pacific State Bank Cycling Tea
8361.68Stone Beck   Fresno, CA00:00:00.00 219237  305 Steven's Bicycles Racing
9366.13Jim Bonnet   Hollister, CA00:00:00.00 4206  312 SJBC
10370.58Eric Stephen   Simi Valley, CA00:00:00.00 176771  377 
11375.03Maurice Monge   San Jose, CA00:00:00.00 257119  351 SJBC
12379.48David Acri   San Francisco00:00:00.00 233803  300 Squadra Ovest Cycling
13383.93Jonathan Teeter   Guerneville, CA00:00:00.00 291414  381 
14388.38Stephen Kent   Mill Valley, CA00:00:00.00 90245  334 Freewheel Bike Shop
15392.83Cyrus Behroozi   Menlo Park, CA00:00:00.00 40408  306 Page Mill Racing
16397.28Matt Wocasek   Santa Cruz, CA00:00:00.00 38747  390 Team Bicycle Trip
17401.73Sydney Newsom   Fresno, CA00:00:00.00 258955  355 Sierra Pacific Racing
18UNKNOWN RIDER   00:00:00.00  398 -------
19410.63Demian Bigelow   Martinez, CA00:00:00.00 41709  309 Taleo Racing
20415.08Michael Ricks   Stockton, CA00:00:00.00 250319  366 Chico Corsa
21419.53Sergio Jimenez   Carmichael, CA00:00:00.00 141124  393 Rio Strada Racing
22423.98Jason James   Oakland, CA00:00:00.00 119309  332 Squadra Ovest Cycling
23428.43Peter Montoya   Fresno, CA00:00:00.00 222038  352 
24432.88Dan Tedford   Mountain View, CA00:00:00.00 196695  380 Squadra Ovest Cycling
25437.33Eric LaFranchi   Calistoga, CA00:00:00.00 199575  338 Thirsty Bear Cycling
26441.78Kaley Parkinson   Danville, CA00:00:00.00 195339  359 Taleo Racing
27446.23Kyle Ashton   Sebastopol, CA00:00:00.00 264499  302 Village Peddler
28450.68Cliff Humphries   Chico, CA00:00:00.00 236093  330 Chico Corsa / Sierra Nevada
29455.13Robert Orcutt   Scotts Valley, CA00:00:00.00 269340  357 Webcor/Alto Velo
30459.58William Dunham   San Jose, CA00:00:00.00 206162  395 Webcor/Alto Velo
31464.03Andrew Lanier Jr   Gilroy, CA00:00:00.00 226086  340 Team Specialized Racing Junior
32468.48John Cheetham   Pleasanton, CA00:00:00.00 202515  314 Metromint Cycling
33472.93Daniel Tisdell   Phoenix, AZ00:00:00.00 188030  383 Team Specialized Racing Junior
34477.38Daniel Farinha   San Jose, CA00:00:00.00 240558  319 SJBC
35481.83Larry Wolff   Sacramento, CA00:00:00.00 219527  391 Webcor/Alto Velo
36486.28Mark Gagner   San Jose, CA00:00:00.00 169733  320 Form Fitness Racing
37490.73Chad MacDonald   Pleasant Hill, CA00:00:00.00 170454  344 Wells Fargo
38495.18Joshua Brand   Sacramento , CA00:00:00.00 209043  313 Kinetic Cycles
39499.63Chad Rosser   San Jose, CA00:00:00.00 286506  368 SJBC
40504.08David Rossow   Los Gatos, CA00:00:00.00 232665  369 Webcor/Alto Velo
41508.53James Porter   Palo Alto, CA00:00:00.00 238708  364 Webcor/Alto Velo
42512.98Robert Miller   Lafayette, CA00:00:00.00 205213  399 Taleo Racing
43517.43Paul Taylor   Brentwood, CA00:00:00.00 207281  379 Metromint Cycling
44521.88Thomas Dillon   Los Altos Hills, CA00:00:00.00 50011  317 Peninsula Velo/Pomodoro
DNSJason Kent   Walnut Creek, CA00:00:00.00 41826  335 Tieni Duro Junior Cycling Team
DNSAndrew Lancashire   Elk Grove, CA00:00:00.00 218734  339 
DNSEdward Leon   San Anselmo, CA00:00:00.00 207154  341 Whole Athlete
DNSBret Martin   Oakland, CA00:00:00.00 60446  345 Sycip
DNSShawn Nelson   Altadena, CA00:00:00.00 25898  354 Santa Clarita Velo
DNSSteve Offerman   Sacramento, CA00:00:00.00 81992  356 Rio Strada Racing
DNSGus Platis   W Sacramento, CA00:00:00.00 40616  363 Team City
DNSKevin Rennie   Menlo Park, CA00:00:00.00 124208  365 Specialized
DNSJacob Rubin   Stanford, CA00:00:00.00 205172  371 Stanford
DNSCharlie Schneider   Petaluma, CA00:00:00.00 245542  372 Team NorCal Bike Sport
DNSAlexander Scott   Sunnyvale, CA00:00:00.00 221566  373 Form Fitness
DNSRichard Tabuso   Roseville, CA00:00:00.00 274439  378 Rio Strada Racing
DNSLouis Toba   Palo Alto, CA00:00:00.00 56384  384 Webcor/Alto Velo
DNSBruce Triplett   Tiburon, CA00:00:00.00 68045  385 ThirstyBear Cycling
DNSJames Williams   Arcata, CA00:00:00.00 284329  387 Adventures Edge
DNSSamuel Wilson   Palo Alto, CA00:00:00.00 248077  388 Metromint Cycling
DNSGarrett Wynne   San Francisco, CA00:00:00.00 72643  392 The Olympic Club
DNSDavid Anthony   Fremont, CA00:00:00.00 195564   Metromint Cycling
DNSScott Warren   Boulder, CO00:00:00.00 221982   Davis Bike Club
DNSAdam Hodes   San Francisco, CA00:00:00.00 219706  327 Tieni Duro
DNSScott Holz   Morgan Hill, CA00:00:00.00 99270  328 
DNSDennis Baker   Sacramento, CA00:00:00.00 255279  303 Sacramento Golden Wheelmen
DNSSam Benedict   Morgan Hill, CA00:00:00.00 194963  307 Specialized
DNSStephen DeLong   Tucson, AZ00:00:00.00 230310  316 Third Pillar
DNSNate Geoffrion   Petaluma, CA00:00:00.00 280351  322 All Sport Team Swift
DNSCliff Goldstein   San Francisco, CA00:00:00.00 275086  323 ZteaM
DNSAndrew Hammond   Morgan Hill, CA00:00:00.00 191844  324 Specialized
DNSMark Herynk   Redwood City, CA00:00:00.00 157123  325 Webcor/Alto Velo
DNSPetro Hizalev   Palo Alto00:00:00.00 224168  326 Webcor/Alto Velo
DNPMichael Vella   Saratoga, CA00:00:00.00 167402  301 Webcor/Alto Velo
DNPJames Bauer   Oakland, CA00:00:00.00 2905  304 Team Oakland
DNPDavid Benkoski   Menlo Park, CA00:00:00.00 271685  308 Team Specialized Racing Junior
DNPSantiago Bolon   San Jose, CA00:00:00.00 195384  310 Christian Cycling - Hammer Nut
DNPSamuel Bolster   Camino, CA00:00:00.00 258704  311 Team Kinetic Cycles
DNPJoseph Christensen   Clements, CA00:00:00.00 240832  315 SJBC
DNPJoe Galloway   Exeter, CA00:00:00.00 242644  321 Sierra Pacific Racing
DNPTyron Hooper   San Francisco, CA00:00:00.00 251276  329 Fusion Sport
DNPJared Ives   Santa Rosa, CA00:00:00.00 207956  331 International Christian Cyclin
DNPCody Kaiser   El Dorado Hills, CA00:00:00.00 202564  333 Kinetic Cycles
DNPRalph King   San Mateo, CA00:00:00.00 52299  336 third Pillar
DNPRobert Meyer   Mountain View, CA00:00:00.00 255751  347 Metromint Cycling
DNPMichael Miller   Menlo Park, CA00:00:00.00 220857  348 Stanford Cycling
DNPPaul Mircik   Los Altos, CA00:00:00.00 126621  349 Form Fitness
DNPJoe Molinari   Redwood City, CA00:00:00.00 24723  350 Form Fitness
DNPJonathan Moskowitz   Benicia, CA00:00:00.00 213197  353 Taleo Racing
DNPChris Padavana   Castro Valley, CA00:00:00.00 27027  358 Eden Bicycles Racing
DNPChris Patterson   Hayward, CA00:00:00.00 88722  360 FormFitness
DNPTorey Philipp   El Dorado Hills, CA00:00:00.00 263055  361 Team Specialized Racing Junior
DNPJohn Piasta   Santa Rosa, CA00:00:00.00 271963  362 All Sport-Team Swift
DNPBoris Rozenberg   Daly City, CA00:00:00.00 190311  370 
DNPPablo Serna   Redwood City, CA00:00:00.00 48826  374 Form Fitness
DNPNathan Shaw   Castro Valley, CA00:00:00.00 196249  375 Fusion Sport
DNPNils Tikkanen   Santa Cruz, CA00:00:00.00 198331  382 Team Bicycle Trip/Symantec
DNPMatthew Talbott   San Jose, CA00:00:00.00 255075  397 Unattached
DNPScott Witthoff   San Francisco, CA00:00:00.00 114899  389 Fusion Sport
DNPNick Kinney   Windsor, CA00:00:00.00 255460  394 Colavita Racing
DNPNole Studley   Oakland, CA00:00:00.00 251301  396 Team Roaring Mouse
DNPThornton Weiler   Alameda, CA00:00:00.00 147592  386 Kaiser Permanente/ Team Oaklan

Men - Pro/Cat 1/2

 Place Points NameCity, StateTime USAC #BibTeam
1157.95Daniel Holloway   Morgan Hill, CA00:00:00.00 181725  111 UCI CT: Bissell Pro Cycling T
2162.38Ryan Parnes (1 - Cat1)   Stockton, CA00:00:00.00 220414  67 Yahoo! Cycling Team
3166.81Chad Gerlach   West Sacramento, CA00:00:00.00 50138  33 
4171.24Andrew Talansky (2 - Cat1)   Napa, CA00:00:00.00 242630  87 California Giant Berry Farms/S
5175.67Logan Loader-Mooney   Felton, CA00:00:00.00 198542  50 lucemie la quimper
6180.10Michael Sayers   Fair Oaks, CA00:00:00.00 54591  78 
7184.53Paul Mach   Oakland, CA00:00:00.00 238694  52 Bissell Pro Cycling
8188.96Philip Mooney (3 - Cat1)   San Rafael , CA00:00:00.00 206962  61 Yahoo! Cycling Team
9193.39James Mattis   Mountain View, CA00:00:00.00 127344  57 California Giant Berry Farms/S
10Will ROUTLEY   00:00:00.00  75 Jelly Belly Cycling Team Prese
11202.25Jesse Moore   Sacramento, CA00:00:00.00 204739  62 California Giant Berry Farms/S
12UNKNOWN RIDER   00:00:00.00  ??? -------
13211.11Roman Kilun   Oakland, CA00:00:00.00 153790  119 UCI CT: Ouch Presented by Max
14215.54Collin Samaan (4 - Cat1)   Fair Oaks, CA00:00:00.00 196233  77 
15219.97Chris Stastny   Vacaville, CA00:00:00.00 249743  84 California Giant Berry Farms/S
16224.40Hendrik Pohl   San Francisco, CA00:00:00.00 207753  829 Fusion Sport USA
17228.83Brandon Trafton   Sacramento, CA00:00:00.00 240033  90 California Giant Berry Farms/S
18233.26Peter Taylor (1 - Cat2)   Walnut Creek, CA00:00:00.00 219859  88 Team Specialized Racing Junior
19237.69Brandon Correia   Alameda, CA00:00:00.00 188308  18 Godspeed Courier
20242.12Andrew Goessling   Richmond, CA00:00:00.00 207262  35 ALA Cycling p/b Lombardi Sport
21246.55William Hudak   Palo Alto, CA00:00:00.00 40450  42 SixFifty Racing
22250.98Alexander Blease   Chico, CA00:00:00.00 195515  Chico Corsa
23255.41Kevin Klein   Menlo Park, CA00:00:00.00 47388  47 Yahoo! Cycling Team
24259.84Elliot Jaramillo   Burlingame, CA00:00:00.00 179930  124 IAS/RH Villa/Montano Velo
25264.27Blake Anton   Arroyo Grande, CA00:00:00.00 192686  
26268.70John Wilk   Oakland, CA00:00:00.00 199951  97 Yahoo! Cycling Team
27273.13Nathan Freed   Tahoe City, CA00:00:00.00 86484  31 Team Clif Bar
28277.56Tyler Dibble   Oakland, CA00:00:00.00 205861  22 Yahoo! Cycling Team
29281.99Mitchell Trux   San Francisco, CA00:00:00.00 153684  102 Metromint Cycling
30UNKNOWN RIDER   00:00:00.00  ??? -------
31290.85Steve Reaney   San Jose, CA00:00:00.00 133288  71 California Giant Berry Farms/S
32295.28Carson Miller (5 - Cat1)   Seattle, WA00:00:00.00 203931  60 Team Rubicon-Orbea
33299.71Gregory White   Lafayette, CA00:00:00.00 246669  96 Davis Bike Club
34304.14Nathanael Christensen   Clements, CA00:00:00.00 239919  14 Williams Cycling
35308.57Filip Vanacht (6 - Cat1)   Los Altos, CA00:00:00.00 245198  93 Yahoo! Cycling Team
36Katheryn MATTIS   00:00:00.00  56 Webcor Builders
37317.43Christopher Jones   Bend, OR00:00:00.00 187300  116 UCI CT: Team Type 1
38321.86Adam Switters   Citrus Heights, CA00:00:00.00 127093  85 Yahoo Cycling Team
39326.29Vincent Owens   Fresno, CA00:00:00.00 242560  65 Yahoo! Cycling Team
40330.72Evan Pickett (7 - Cat1)   Menlo Park, CA00:00:00.00 206742  120 Webcor/Alto Velo
41335.15Patrick Briggs   Oakland, CA00:00:00.00 4838  12 Yahoo! Cycling Team
42339.58John Bergmann   Albany, CA00:00:00.00 187522  Team Clif Bar
43344.01James LaBerge   Napa, CA00:00:00.00 221376  117 Team Specialized Racing Junior
44348.44Robert Hoene   Boise, ID00:00:00.00 45460  41 Team Bobs-Bicycles.com
45352.87Timothy Root   Boise, ID00:00:00.00 52797  73 George's/BODE
46357.30Alex Osborne   Berkeley, CA00:00:00.00 26855  64 3rd rail cycling club
47361.73Mike Gratz   Pleasant Hill, CA00:00:00.00 256787  37 Taleo Racing
48366.16Robert Pasco   Belmont, CA00:00:00.00 136970  114 SAFEWAY/Bicycles Plus/PureRed
49370.59Anastasio Flores   La Selva Beach, CA00:00:00.00 11877  29 
50375.02Jeffrey Galland   Paradise, CA00:00:00.00 127804  32 CHICO CORSA/SIERRA NEVADA
51379.45Connor Spencer   San Francisco, CA00:00:00.00 256539  83 Metromint Cycling
52383.88Bo Hebenstreit   Campbell, CA00:00:00.00 196276  39 Webcor/Alto Velo
53388.31Elliot Hawkes   Stanford, CA00:00:00.00 275956  38 
DNSTyler Wertenbruch   Los Osos, CA00:00:00.00 155433  94 SLO Nexus-Gym One
DNSTravis T   San Francisco, CA00:00:00.00 158451  86 Metromint Cycling
DNSMatthew Rozek   Folsom, CA00:00:00.00 154826  76 Team Bicycles Plus/Sierra Neva
DNSShawn Rosenthal   Berkeley, CA00:00:00.00 196247  74 Echelon/Zteam Gran Fondo
DNSJeff Eisenberg (Cat2)   San Francisco, CA00:00:00.00 231993  26 Fusion Sport
DNSJeremy Dixon   Lompoc00:00:00.00 61773  23 Herbalife-LaGrange
DNSDirk Copeland   Santa Clara, CA00:00:00.00 52843  16 Yahoo! Cycling Team
DNPAaron Gallardo   Woodland Hills Ca00:00:00.00 160366  126 Team Helen's
DNPRandy Bramblett   San Francisco, CA00:00:00.00 187194  125 Williams Cycling
DNPMarley Smith   Roseville, CA00:00:00.00 276961  123 Touchstone Climbing
DNPMatthew Obregon   Folsom, CA00:00:00.00 232613  122 Team Bicycles Plus/Sierra Neva
DNPAaron Beardsley   Berkeley, CA00:00:00.00 188253  121 TEAM CLIF BAR Cycling
DNPJoel Robertson   San Leandro, CA00:00:00.00 220316  118 Webcor/Alto Velo
DNPJames Wingert   San Diego, CA00:00:00.00 256481  115 Echelon Gran Fondo/Zteam
DNPRand Miller (Cat1)   San Francisco, CA00:00:00.00 182990  113 Webcor/Alto Velo
DNPJenson Lee (Cat2)   Saratoga, CA00:00:00.00 212393  112 Wells Fargo Racing Team
DNPLucas Paz   Richmond, CA00:00:00.00 150305  110 East Bay Velo Club
DNPRobert Yeh   Berkeley, CA00:00:00.00 109421  109 East Bay Velo Club
DNPStephen McCaw   Sacramento, CA00:00:00.00 62322  108 Rocknasium
DNPBlake Reed   Grover Beach, CA00:00:00.00 29369  107 ArtsCyclery.com/Wild Horse Win
DNPMark Wisecup   Santa Rosa, CA00:00:00.00 145594  106 Unattached
DNPIan Boswell   Bend, OR00:00:00.00 216155  103 UCI CT: Bissell Pro Cycling T
DNPTaylor Bertrand-Barrett (Cat1)   Sonoma, CA00:00:00.00 274643  101 Team NorCal Bike Sport
DNPJudd Van Sickle   Sacramento, CA00:00:00.00 127052  100 Rocknasium
DNPDavid Yeung (Cat2)   Palo Alto, CA00:00:00.00 71941  99 Six-Fifty Racing
DNPDavid Wyandt (Cat1)   Cupertino, CA00:00:00.00 39090  98 HRS - Rocklobster
DNPRussell White   Lafayette, CA00:00:00.00 236024  95 Davis Bike Club
DNPMichael Tymoff (Cat2)   San Francisco, CA00:00:00.00 207589  92 ALA Cycling p/b Lombardi Sport
DNPChris Turner   Los Altos, CA00:00:00.00 253101  91 Above Category Racing
DNPAndrew Touchstone   San Francisco, CA00:00:00.00 132946  89 NA
DNPPhillip Snodgrass   Dallas, TX00:00:00.00 266817  82 Wells Fargo Racing
DNPGraham Simpson   Carmel Valley, CA00:00:00.00 65800  81 Webcor/Alto Velo
DNPLee Shuemake   Sonora, CA00:00:00.00 197770  80 Topsport
DNPCarmi Schulman   Seattle, WA00:00:00.00 200292  79 Squadra Ovest
DNPSean Rhea (Cat1)   San Francisco, CA00:00:00.00 178535  72 Metromint Cycling
DNPDavid Pouncy   Piedmont, CA00:00:00.00 248071  70 Berkeley Bicycle Club (BBC)
DNPSamuel Pickman   San Jose, CA00:00:00.00 133433  69 California Giant Berry Farms/S
DNPPeter Petrillo (Cat2)   Hamden, CT00:00:00.00 163906  68 CVC/Subaru of New England
DNPNathan Parks   Livermore, CA00:00:00.00 51773  66 Morgan Stanley Smith Barney/Sp
DNPThomas Novikoff (Cat2)   San Jose, CA00:00:00.00 141331  63 Webcor/Alto Velo
DNPKeith Miller   Los Gatos, CA00:00:00.00 53753  59 California Giant Berry Farms/S
DNPSean McBride   Oakland, CA00:00:00.00 190591  58 ALA Cycling p/b Lombardi Sport
DNPJulian Martinez   Santa Monica, CA00:00:00.00 214569  55 California Giant Berry Farms/S
DNPFrank Marrs   Atlanta, GA00:00:00.00 272691  54 Davis Bike Club
DNPRobert MacNeill   San Carlos, CA00:00:00.00 199599  53 Webcor/Alto Velo
DNPWilliam Longstreth   Tiburon, CA00:00:00.00 110206  51 Olympic Club
DNPJustin Laue   Austin, TX00:00:00.00 264982  49 Echelon Gran Fondo/ZteaM
DNPJosh LaGrange   Bend, OR00:00:00.00 201330  48 Form Fitness
DNPKeith Jordon   Hayward, CA00:00:00.00 254515  46 Berkeley Bicycle Club (BBC)
DNPMaxim Jenkins   Citrus Heights, CA00:00:00.00 195652  45 
DNPMichael Jacques   Portola Valley, CA00:00:00.00 72022  44 TEAM CLIF BAR
DNPEvan Huffman   El Dorado Hills, CA00:00:00.00 256955  43 Yahoo! Cycling Team
DNPKeith Hillier   Millbrae, CA00:00:00.00 276108  40 Davis Bike Club
DNPPeter Graf   Sacramento, CA00:00:00.00 218511  36 ALA Cycling p/b Lombardi Sport
DNPMichael Gil   San Francisco, CA00:00:00.00 261220  34 Godspeed Courier
DNPRobb Floth   Kuna, ID00:00:00.00 264340  30 Team Bobs-Bicycles.com
DNPEric Fischer (Cat2)   Berkeley, CA00:00:00.00 246309  28 Safeway/Bicycles Plus
DNPNathaniel English (Cat1)   Berkeley, CA00:00:00.00 258309  27 ZteaM
DNPMichael Egan   West Sacrametno, CA00:00:00.00 124893  25 Sacramento Golden Wheelmen
DNPAlton Dunnigan   Pleasant Hill, CA00:00:00.00 157044  24 ALA Cycling p/b Lombardi Sport
DNPMark Deterline   Salt Lake City, UT00:00:00.00 43613  21 Wells Fargo Racing Team
DNPRobert Dahl   Oakland, CA00:00:00.00 218381  20 Cal Cycling
DNPWilliam (Billy) Crane   Mountain View, CA00:00:00.00 138129  19 Webcor/Alto Velo
DNPMichael Cordova   Chester, CA00:00:00.00 207547  17 Chico Corsa
DNPChristopher Coble   San Francisco, CA00:00:00.00 220196  15 The Olympic Club
DNPMack Chew (Cat2)   San Francisco, CA00:00:00.00 170147  13 ALA Cycling p/b Lombardi Sport
DNPTyler Brandt   Vallejo, CA00:00:00.00 210604  11 California Giant Berry Farms/S
DNPBrian Bosch   Fresno, CA00:00:00.00 40703  10 Yahoo! Cycling Team
DNPChris Black   San Luis Obispo, CA00:00:00.00 3814  Morgan Stanley Smith Barney /
DNPJohn Bennett   El Cerrito, CA00:00:00.00 237917  Whole Athlete
DNPSam Bassetti   San Geronimo, CA00:00:00.00 237712  ALA Cycling p/b Lombardi Sport
DNPJames Badia   Redwood City, CA00:00:00.00 200949  Webcor/Alto Velo
DNPPeter Armstrong (Cat2)   Lafayette, CA00:00:00.00 279806  Taleo Racing
DNPCharles Alexander (Cat2)   Sacramento, CA00:00:00.00 206466  Davis Bike Club

Men - Cat 1/2/3 - Master - 35-99

 Place Points NameCity, StateTime USAC #BibTeam
1187.86William Innes   Menlo Park, CA00:00:00.00 52412  843 Team Specialized Racing
2192.46Daniel Bryant   Carmichael, CA00:00:00.00 195929  809 Vitamin Water/Folsom Bike
3197.06Christopher Phipps   San Francisco, CA00:00:00.00 233623  875 Morgan Stanley Smith Barney/Sp
4201.66Jason Grefrath   Sacramento, CA00:00:00.00 281883  836 Taleo Racing
5206.26Patrick McClurg   Citrus Heights, CA00:00:00.00 48984  860 Vitamin Water/Folsom Bike
6210.86Tracy Muegge   Gold River, CA00:00:00.00 51637  865 Team Bicycle Plus/Sierra Nevad
7215.46Christopher Baker   Sacramento, CA00:00:00.00 47424  801 Morgan Stanley-Smith Barney/Sp
8220.06Jason Snovel   Sacramento, CA00:00:00.00 268577  884 Rocknasium
9224.66John Trefethen   Danville, CA00:00:00.00 212376  889 HDR Racing p/b Lombardi Sports
10229.26David Levine   Alamo, CA00:00:00.00 145573  854 Taleo Racing
11233.86Jan Weissenberger   San Francisco, CA00:00:00.00 186678  894 SAFEWAY/Bicycles Plus/PureRed
12238.46Nils Johnson   Davis, CA00:00:00.00 196328  847 Vitamin Water/Folsom Bike
13243.06Steven Romjue   Mill Valley, CA00:00:00.00 69415  880 Olympic Club
14247.66Bill Beers   Danville, CA00:00:00.00 236371  802 Wells Fargo Racing Team
15252.26Nathan Parks   Livermore, CA00:00:00.00 51773  870 Morgan Stanley Smith Barney/S
16256.86Chris Ott   San Jose, CA00:00:00.00 26920  869 Zenn Racing Team
17261.46Dean LaBerge   Napa, CA00:00:00.00 67041  852 Team Specialized Racing
18266.06Bob Delp (1 - Cat3)   Folsom, CA00:00:00.00 9138  820 Vitamin Water/Folsom Bike
19270.66Peter Lanik   Ashburn, VA00:00:00.00 226531  853 Sierra Pacific Racing
20275.26Scott Peifer   Granite Bay, CA00:00:00.00 265877  872 Vitamin Water/Folsom Bike
21279.86Kevin Kennedy (2 - Cat3)   Danville, CA00:00:00.00 264239  848 Taleo Racing
22284.46Tyler Heerwagen   Palo Alto, CA00:00:00.00 15661  837 Olympic Club
23289.06Blaise Maher (1 - Cat2)   Sacramento, CA00:00:00.00 57537  857 SGW
24293.66Brian Choi   Folsom, CA00:00:00.00 52849  815 Vitamin Water/Folsom Bike
25298.26Richard Bradley   Sacramento, CA00:00:00.00 223944  805 Morgan Stanley Smith Barney/ S
26302.86Robin VanValkenburgh   Yuba City, CA00:00:00.00 62349  891 Rocknasium
27307.46Raffi Jilizian   Danville, CA00:00:00.00 187667  845 FORM Fitness
28312.06Kyle Glerum   Burlingame, CA00:00:00.00 195470  834 SAFEWAY/Bicycles Plus/PureRed
29316.66Eric Saltzman   Menlo Park, CA00:00:00.00 46157  881 Morgan Stanley Smith Barney/Sp
30321.26Michael Vetterli   Alamo, CA00:00:00.00 214565  898 Olympic Club
31325.86John Skates   Martinez, CA00:00:00.00 116663  883 Village Peddler
32330.46Marco Hellman   San Francisco, CA00:00:00.00 123885  839 TeamSpecializedRacing Masters
33335.06Jason Boynton   Yuba City, CA00:00:00.00 4526  804 Rocknasium
34339.66Jason Brown   Lodi, CA00:00:00.00 53115  808 Kinetic Cycles/GBI
35344.26James Drake (3 - Cat3)   San Anselmo, CA00:00:00.00 242380  823 Village Peddler
36348.86Rodney Spradlin   El Dorado Hills, CA00:00:00.00 122266  885 FCI Commercial Capital
37353.46Mark Faulkner   Pacific Grove, CA00:00:00.00 190171  829 Joselyn's Bicycles/Burnham Coa
38358.06Isaac Chilton   Georgetown, CA00:00:00.00 6786  814 
39362.66Jeff Horner (4 - Cat3)   Walnut Creek, CA00:00:00.00 219308  842 Wells Fargo Racing Team
40367.26Roger Martin   Danville, CA00:00:00.00 276924  859 Taleo Racing
41371.86John Wooldridge   Alamo, CA00:00:00.00 38940  897 Wells Fargo Racing Team
42376.46Jim Ivey   Salinas, CA00:00:00.00 240703  844 Joselyns Bicycles
43381.06Leslie Oglesby   Salinas, CA00:00:00.00 53661  866 Joselyn's Bicycle Shop
DNSDavid Loogman   Modesto, CA00:00:00.00 71865  855 HDR p/b Lombardi Sports
DNSKevin Metcalfe   Pleasant Hill, CA00:00:00.00 47519  862 Team Specialized Racing Master
DNSDarryl Moxley   Orangevale, CA00:00:00.00 86490  864 Bicycles Plus/Sierra Nevada
DNSJohn O'Neill   San Mateo, CA00:00:00.00 52722  868 Team Clover
DNSRobert Pasco   Belmont, CA00:00:00.00 136970  871 SAFEWAY/Bicycles Plus/PureRed
DNSBrian Peterson   Santa Cruz, CA00:00:00.00 196252  873 MRBerkeley.com p/b Bell Lap
DNSCale Reeder   Cameron Park, CA00:00:00.00 272237  879 Echelon Gran Fondo/Zteam
DNSCarter Schmeck   Auburn, CA00:00:00.00 31617  882 Rocknasium
DNSJames Walton   Menlo Park, CA00:00:00.00 48414  893 Six Fifty Racing
DNSJamie Willin   Redwood City, CA00:00:00.00 38466  895 the olympic club
DNSDave Garcia (Cat3)   Dublin, CA00:00:00.00 161627  833 Wells Fargo Racing Team
DNSCarl Hekkert   Sunnyvale, CA00:00:00.00 15729  838 FormFitness
DNSRichard Del Valle   San Jose, CA00:00:00.00 9150  819 Team One
DNSKen Calender   Salinas, CA00:00:00.00 115342  811 
DNSIrving Arguello   Millbrae, CA00:00:00.00 134895  800 Thirsty Bear
DQBrent Binkowski   Carlsbad, CA00:00:00.00 59531  803 GSCA
DNPJay Kinney   Placerville, CA00:00:00.00 125352  851 
DNPAlex Holtz   Sacramento, CA00:00:00.00 61440  840 Morgan Stanley Smith Barney/Sp
DNPNick Theobald   Burlingame, CA00:00:00.00 35297  887 SAFEWAY/Bicycles Plus/PureRed
DNPSteve Thomsen   Reno, NV00:00:00.00 245436  888 Great Basin Imaging
DNPMark Walsh   Sacramento, CA00:00:00.00 46040  892 Berkeley Bicycle Club (BBC)
DNPRobert Winder   Lafayette, CA00:00:00.00 220285  896 HDR p/b Lombardi Sports
DNPJeffrey Purcell   Hughson, CA00:00:00.00 53815  899 Fun Sport Bikes Cycling Team
DNPReid Swanson   San Ramon, CA00:00:00.00 203584  886 Wells Fargo Racing Team
DNPRonald Reade   Berkeley, CA00:00:00.00 53377  878 SAFEWAY/Bicycles Plus/PureRed
DNPClark Rasmussen   San Francisco, CA00:00:00.00 47316  877 Wells Fargo Racing Team
DNPDouglas Philippone   Washington, DC00:00:00.00 42635  874 Joselyn's Bicycles/Palantir
DNPCharles Pockell-Wilson   Martinez Ca00:00:00.00 52696  876 HDR Racing p/b Lombardi Sports
DNPAlvaro Mosquera   Sacramento, CA00:00:00.00 236809  863 Team Bicycle Plus/Sierra Nevad
DNPShawn Oliver   St. Helena, CA00:00:00.00 46241  867 Morgan Stanley Smith Barney/Sp
DNPBubba Melcher   Reno, NV00:00:00.00 23961  861 Team Clover
DNPDan Martin   Pleasanton, CA00:00:00.00 179386  858 SAFEWAY/Bicycles Plus/PureRed
DNPKent Lourenzo   Discovery Bay, CA00:00:00.00 72054  856 Wells Fargo Racing Team
DNPDennis King   Arroyo Grande, CA00:00:00.00 51230  850 cct
DNPSpencer Kenner   Davis, CA00:00:00.00 86651  849 Armstrong & Associates / FCI C
DNPHarold Johnson (Cat1)   Mill Valley, CA00:00:00.00 17952  846 Olympic Club
DNPTony Homes   Danville, CA00:00:00.00 210572  841 Wells Fargo Racing Team
DNPSassan Golafshan   Palo Alto, CA00:00:00.00 169945  835 Form Fitness
DNPGregory Gambetta   Sacramento, CA00:00:00.00 212916  832 Vitamin Water/Folsom Bike
DNPScott Fonseca   Fair Oaks, CA00:00:00.00 204715  831 Zenn Racing Team
DNPNick Fitton (Cat3)   Livermore, CA00:00:00.00 254446  830 Wells Fargo Racing Team
DNPTom Fahey   Lodi, CA00:00:00.00 54092  827 MRBerkeley.com p/b Bell Lap
DNPJohn Fairbanks   Sacramento, CA00:00:00.00 83306  828 SAFEWAY/Bicycles Plus/PureRed
DNPJonathan Eropkin   Fresno, CA00:00:00.00 197844  826 SAFEWAY/Bicycles Plus/PureRed
DNPCurtis Eastin   Clovis, CA00:00:00.00 40657  825 Sierra Pacific Racing
DNPPaul Dyrwal   San Rafael, CA00:00:00.00 254245  824 Morgan Stanley Smith Barney/Sp
DNPScott Derdenger   Benicia, CA00:00:00.00 55123  822 HDR p/b Lombardi Sports
DNPDavid Del Rosso   Dublin, CA00:00:00.00 187432  818 HDR p/b Lombardi Sports
DNPMaurice Daroy   Brentwood, CA00:00:00.00 236133  817 Wells Fargo Racing Team
DNPChris Courtney   Oakdale, CA00:00:00.00 47303  816 SJBC
DNPJohn Cavanaugh   Lafayette, CA00:00:00.00 172586  813 HDR racing p/b lumbardi sports
DNPTim Butler   Clovis, CA00:00:00.00 239746  810 Sierra Pacific Racing
DNPChris Carscadden   Walnut Creek, CA00:00:00.00 165751  812 HDR p/b Lombardi Sports
DNPRichard Brockie (Cat3)   San Jose, CA00:00:00.00 195395  807 Team Fremont/FFBC powered by C
DNPBill Brier   Fremont, CA00:00:00.00 274225  806 Team Fremont/FFBC powered by C
DNPChad DeMasi   Davis, CA00:00:00.00 158049  821 Rocknasium

Men - Cat 1/2/3 - Master - 45-99

 Place Points NameCity, StateTime USAC #BibTeam
1212.87Gregg Betonte   Truckee, CA00:00:00.00 255414  502 SAFEWAY/Bicycles Plus/PureRed
2220.11Daniel Smith   Menlo Park, CA00:00:00.00 33087  541 Morgan Stanley/Team Spine/Spec
3227.35Hunter Ziesing   Bel Tiburon, CA00:00:00.00 39478  503 Echelon Gran Fondo/Zteam
4234.59Michael O'Rourke   Auburn, CA00:00:00.00 204496  532 SAFEWAY/Bicycles Plus/PureRed
5241.83Alan Nielson   Dublin, CA00:00:00.00 236183  530 Wells Fargo Racing Team
6249.07Jonathan Laine   Truckee, CA00:00:00.00 256153  518 SAFEWAY/Bicycles Plus/PureRed
7256.31Peter Allen   Fair Oaks, CA00:00:00.00 46996  500 SAFEWAY/Bicycles Plus/PureRed
8263.55Cale Reeder   Cameron Park, CA00:00:00.00 272237  504 Echelon Gran Fondo/Zteam
9270.79Steven Gile   Salinas, CA00:00:00.00 98978  514 VOS Racing
10278.03Michael Pugh   Davis, CA00:00:00.00 28820  535 Echelon Gran Fondo/Zteam
11285.27Matt Yaden   Danville, CA00:00:00.00 238250  548 Wells Fargo Racing Team
12292.51Ted Toribio   Elk Grove00:00:00.00 88963  519 Christian Cycling-Hammer Nutri
13299.75Stefano Schiaffino   Pleasanton, CA00:00:00.00 257173  539 Christian Cycling/Hammer Nutri
14306.99Stanley Terusaki   Livermore, CA00:00:00.00 35241  544 Morgan Stanley Smith Barney/Sp
15314.23Tony Reid   Sacramento, CA00:00:00.00 29458  537 SAFEWAY/Bicycles Plus/PureRed
16321.47Shin Umeda   Sunnyvale, CA00:00:00.00 46023  505 Webcor/Alto Velo
17328.71Rod Fernandez   Dixon, CA00:00:00.00 265576  509 Davis Bike Club Race Team
18335.95Joseph Foster   Alamo, CA00:00:00.00 286823  511 Wells Fargo Racing Team
19343.19Jon Ornstil   San Francisco, CA00:00:00.00 71802  531 VOS Racing
20350.43Robert Parker   San Jose, CA00:00:00.00 48416  533 Webcor/Alto Velo
21357.67James Morgan   Oakland, CA00:00:00.00 208555  525 Webcor/Alto Velo
22364.91Roland Freund   Davis, CA00:00:00.00 226676  512 Davis Bike Club
23372.15Fred Schnaars   Davis, CA00:00:00.00 65032  540 Davis Bike Club Race Team
24379.39Greg Bollella   Redwood City, CA00:00:00.00 235126  526 Webcor/Alto Velo
25386.63Lee Millon   Winters, CA00:00:00.00 254073  524 Davis Bike Club Race Team
26393.87John Zunino   Arnold, CA00:00:00.00 196757  523 Team Bicycles Plus/Sierra Neva
27401.11John Hancock   Sacramento, CA00:00:00.00 195844  520 Team Bicycles Plus/Sierra Neva
28408.35Brian Hitchman   Folsom, CA00:00:00.00 48419  516 Team Bicycles Plus/Sierra Neva
29415.59Dave Gane   San Leandro, CA00:00:00.00 12735  513 Morgan Stanley
30422.83Jan Elsbach   Davis, CA00:00:00.00 200149  508 VOS racing
31430.07Christopher Kemp   West Sacramento, CA00:00:00.00 18867  517 Team City
32437.31Thomas Coulter   Rocklin, CA00:00:00.00 74102  506 Mogan Stanley Smith Barney Spe
33444.55Dennis Pedersen   Santa Cruz, CA00:00:00.00 126404  534 Team Bicycle Trip/Symantec
34451.79Jess Raphael   Napa, CA00:00:00.00 221460  536 SAFEWAY/Bicycles Plus/PureRed
35459.03Rick Martyn   Pleasant Hill, CA00:00:00.00 204699  521 VOS Racing
36466.27Lance Newey   Fair Oaks, CA00:00:00.00 202161  527 Team Bicycles Plus/Sierra Neva
37473.51Robert Nichols   Lockeford, CA00:00:00.00 255632  529 Williams Cycling
38480.75James Allen   Davis, CA00:00:00.00 196753  501 VOS Racing
DNSJohn Blasquez   Livermore, CA00:00:00.00 3914   Eden Bicycle Racing Club
DNSRichard Burns   Folsom, CA00:00:00.00 255440   Team Bicycles Plus/Sierra Neva
DNSRussell Cadwallader   Aptos, CA00:00:00.00 5785   Team Bicycle Trip/Symantec
DNSWilliam Lico   San Jose00:00:00.00 134972   Christian cycling-Hammer nutri
DNSJohn Marshall   Reno, NV00:00:00.00 207775   Team Bicycle Trip/Symantec
DNSSteven Mielich   San Jose, CA00:00:00.00 136178   SJBC
DNSRobert Napieralski   Springville, CA00:00:00.00 271499   Yokohl Ranch/Sierra Bicycle We
DNPChris Courtney   Oakdale, CA00:00:00.00 47303  507 SJBC
DNPMartin Wolff   Carmel, CA00:00:00.00 203646  547 VOS Racing
DNPKevin Willitts   S Lake Tahoe, CA00:00:00.00 192774  546 Team Bicycles Plus/Sierra Neva
DNPKen Todd   Folsom, CA00:00:00.00 174881  545 Team Bicycles Plus/Sierra Neva
DNPMichael Sudbrink   Santa Cruz, CA00:00:00.00 54983  543 Bicycle Trip/Symantec
DNPKristopher Spyrka   Alamo, CA00:00:00.00 207144  542 Taleo Racing
DNPDarin Salk   Davis, CA00:00:00.00 272631  538 Davis Bike Club
DNPBill Nicely   San Ramon, CA00:00:00.00 215434  528 VOS Racing
DNPThomas McDonough   Ukiah, CA00:00:00.00 68163  522 Fightin' Bobas
DNPmarc hamlin   Hathaway Pines, CA00:00:00.00 275127  515 team bicycles Plus/Sierra Neva
DNPJohn Ford   Redwood City, CA00:00:00.00 129994  510 Morgan Stanley Smith Barney/Sp

Men - Cat 4/5 - Master A - 35-99

 Place Points NameCity, StateTime USAC #BibTeam
1348.21Jason Cruser   Walnutcreek, CA00:00:00.00 287526  609 Wells Fargo Racing Team
2353.81Chris Parod   Mather, CA00:00:00.00 270992  635 Team Bicycles Plus/Sierra Neva
3359.41Steve Ward   Folsom, CA00:00:00.00 286653  644 Team Bicycles Plus/Sierra Neva
4365.01Greg Tripoli   Hanford, CA00:00:00.00 281420  642 Rubber Soul/CSC Racing Team
5370.61Phillip Smith   El Dorado Hills, CA00:00:00.00 33251  640 Bicycle Planet
6376.21Daniel Cervelli (1 - Cat4)   Menlo Park, CA00:00:00.00 303551  607 
7381.81Shawn Overholtzer   Modesto, CA00:00:00.00 229420  634 Fun Sport Bikes Cycling Team
8387.41Allen Jones   Dublin, CA00:00:00.00 255750  624 Wells Fargo Racing Team
9393.01Richard Nichols   Danville, CA00:00:00.00 286421  630 Tri Valley Velo
10398.61curtis hoyt   Kelsey, CA00:00:00.00 291773  622 Bicycle Planet
11404.21Todd Dambly   Folsom, CA00:00:00.00 212968  612 Bicycle Planet
12409.81Paul Henderson (2 - Cat4)   Livermore, CA00:00:00.00 254491  620 MINIMAX
13415.41Chris Callahan   Alamo, CA00:00:00.00 242571  606 Wells Fargo Racing Team
14421.01Joseph Smith   Modesto, CA00:00:00.00 118308  641 Fun Sport Bikes Cycling Team
15426.61Frank Shoemaker   Folsom, CA00:00:00.00 32519  639 Bicycle Planet
16432.21Timothy Zsoka   Folsom, CA00:00:00.00 239889  646 Team Bicycles Plus/Sierra Neva
17437.81John Metzger   Shingle Springs, CA00:00:00.00 166381  628 Team Bicycles Plus/Sierra Neva
18443.41Luke Ashcraft   San Francisco, CA00:00:00.00 222002  616 Dolce Vita
19UNKNOWN RIDER   00:00:00.00  ??? -------
20454.61Chris King   San Francisco, CA00:00:00.00 245892  614 Dolce Vita Cycling
21460.21Rick Cunningham   Fair Oaks, CA00:00:00.00 8361  610 Bicycle Planet
22465.81Brad Crow   Danville, CA00:00:00.00 271159  608 Wells Fargo Racing Team
23471.41Jason Oxford   Fresno, CA00:00:00.00 277338  645 Vapor Racing
24477.01David Douglas   Pleasanton, CA00:00:00.00 195436  613 Christian Cycling/Hammer Nutri
25482.61Ryan Nickelson   Danville, CA00:00:00.00 227002  632 Wells Fargo Racing Team
26488.21Russell Gauthier (3 - Cat4)   Pleasanton, CA00:00:00.00 223902  617 Christian Cycling-Hammer Nutri
27493.81Stuart Bratton   Folsom, CA00:00:00.00 286850  602 Bicycle Planet
28499.41Derrick Gray   San Carlos, CA00:00:00.00 158158  619 Peninsula Velo/Pomodoro
29505.01Shane Calkins   Gold River, CA00:00:00.00 254786  605 Team Bicycles Plus/Sierra Neva
30510.61Bob Ehardt   Orangevale, CA00:00:00.00 286992  615 Bicycle Planet
31516.21Michele Brocato   Lafayette, CA00:00:00.00 177046  603 Tri Valley Velo
32521.81Rick Berry   Kingsburg, CA00:00:00.00 271131  601 Rubber Soul/CSC Racing Team
33527.41Hendrik (Erik) Hofman   Danville, CA00:00:00.00 285592  621 Tri Valley Velo
34533.01Nathan Trueblood   Pleasanton, CA00:00:00.00 195397  643 Tri Valley Velo
35538.61James Gordon   San Francisco, CA00:00:00.00 271557  604 Dolce Vita Cycling
36544.21Todd Munk   Morgan Hill, CA00:00:00.00 296426  629 SJBC
37549.81Myron Reyes   San Ramon, CA00:00:00.00 141386  638 Tri Valley Velo
38555.41David Dalton   Danville, CA00:00:00.00 287122  611 
39561.01Brian Priddin   El Dorado, CA00:00:00.00 178247  636 
40566.61Robert Artigo   Foster City, CA00:00:00.00 266426  647 Unattached
41572.21Frank Lunceford Sr   El Dorado Hills, CA00:00:00.00 273343  627 Bicycle Planet
42577.81Marsh Oakes (1 - Cat5)   Cameronpark, CA00:00:00.00 307551  633 Bicycle Planet
43583.41Andrew Pryfogle (2 - Cat5)   San Ramon, CA00:00:00.00 305650  637 Christian Cycling/Hammer Nutri
44589.01Stephen Youtsey   Los Gatos, CA00:00:00.00 102258  626 Dolce Vita Cycling
DNSChristopher Westphal   Sacramento, CA00:00:00.00 121777   Bicycle Planet
DNSRick Lawton   Pleasanton, CA00:00:00.00 141309   Wells Fargo Racing Team
DNSJoaquin Feliciano   Davis, CA00:00:00.00 271419   Davis Bike Club
DNSDave Dunkley   Clayton, CA00:00:00.00 195560   Wells Fargo Racing Team
DNSBarry Burr (Cat4)   Mountain View, CA00:00:00.00 275056   Webcor/Alto Velo
DNPCarlos Ponce   Sacramento, CA00:00:00.00 196124  648 Body Concepts
DNPMark Nichols   Alamo, CA00:00:00.00 83106  631 Wells Fargo Racing Team
DNPChris Latsch   Oakland, CA00:00:00.00 303903  625 Metromint Cycling
DNPAllen Jackson   Sonora, CA00:00:00.00 260263  623 Wells Fargo Racing Team
DNPJeff Gledhill   Clovis, CA00:00:00.00 282233  618 Rubber Soul/ CSC Racing
DNPRobert Bell   Turlock, CA00:00:00.00 302930  600 Fun Sport Bikes Cycling Team

Men - Cat 4/5 - Master B - 35-99

 Place Points NameCity, StateTime USAC #BibTeam
1332.35Jonathan Orban   Burlingame, CA00:00:00.00 240114  685 Third Pillar
2339.02Scott Cox   El Sobrante, CA00:00:00.00 288732  751 SF Sport & Spine Pt Racing
3345.69Douglas Rowland   Davis, CA00:00:00.00 295966  692 Davis Bike Club
4352.36Gregg Marioni   San Anselmo, CA00:00:00.00 22517  678 California Giant Cycling
5359.03Michael Simos   Redwood City, CA00:00:00.00 271296  695 Los Gatos
6365.70Richard Gelsi-Medeot   Novato, CA00:00:00.00 225191  671 California/Giant/Cycling
7372.37John Ellis   Santa Rosa, CA00:00:00.00 262353  666 Norcal Colavita/Sutter Home
8379.04Barry Freifeld (1 - Cat4)   Oakland, CA00:00:00.00 51650  784 SF Sport & Spine PT Racing
9385.71Matt Connolly   Sacramento, CA00:00:00.00 302694  664 Rio Strada Racing
10392.38David Colyer   Novato, CA00:00:00.00 259783  662 Taleo Racing
11399.05Nelson Frink   Sutter, CA00:00:00.00 268821  655 Davis Bike Club
12405.72Daryl Nelson   San Rafael, CA00:00:00.00 131311  684 Taleo Racing
13412.39John Collins   Folsom, CA00:00:00.00 231774  661 Team Revolutions
14419.06James Pavlichek   Davis, CA00:00:00.00 63239  688 Davis Bike Club
15425.73Victor Mirzayan   Fresno, CA00:00:00.00 262853  681 Sierra Pacific Racing
16432.40Michael Saba   Oakland, CA00:00:00.00 285459  693 Taleo Racing
17439.07David Brunetti   Modesto, CA00:00:00.00 5236  791 Unattached
18445.74Wyatt Garcia   Atwater, CA00:00:00.00 287655  670 Stanislaus Merlock/Velo
19452.41Joshua Ballesteros   Brentwood, CA00:00:00.00 262160  650 Third Pillar
20459.08David Burke (2 - Cat4)   Sacramento, CA00:00:00.00 5509  656 Rio Strada
21465.75Tim Petersen   Alamo00:00:00.00 204058  781 SF Sport & Spine PT Racing
22472.42Jason Eiserich   Davis, CA00:00:00.00 256545  665 Davis Bike Club
23479.09Francis Goldsberry   Sacramento, CA00:00:00.00 132927  672 Sacramento Golden Wheelmen
24485.76Adam Martin   Antioch, CA00:00:00.00 57185  679 Tri Valley Velo
25492.43Robert Fusco   Livermore, CA00:00:00.00 264855  668 VSRT/Livermore Cyclery
26499.10Russell McCrary   San Ramon, CA00:00:00.00 253276  680 California Giant Cycling
27505.77Alex Chiappetta   Berkeley, CA00:00:00.00 60393  758 SF Sport & Spine Pt Racing
28512.44Mitch Bramlett   Santa Cruz, CA00:00:00.00 4611  653 Third Pillar
29519.11Jon Moeller   Foster City, CA00:00:00.00 226118  682 Third Pillar
30525.78Gregory Colyer   Hercules, CA00:00:00.00 254007  663 Taleo Racing
31532.45Michael Boehme   Windsor, CA00:00:00.00 252576  652 Colavita/Sutterhome-Norcal
32539.12Robert Goss   Folsom, CA00:00:00.00 289041  673 Rio Strada Racing
33545.79Jay Simons   San Francisco, CA00:00:00.00 236927  694 Third Pillar
34552.46Daniel Burns   San Mateo, CA00:00:00.00 292461  657 
35559.13Stefano Moro   Burlingame, CA00:00:00.00 259912  683 Third Pillar
36565.80Samuel Campbell   San Francisco, CA00:00:00.00 242549  659 Third Pillar
37572.47Rob Robinson   Castro Valley, CA00:00:00.00 271386  691 Taleo Racing
38579.14C Jeffrey Bramlett   Palo Alto, CA00:00:00.00 202272  654 Third Pillar
39585.81Derek Byrne   Sacramento, CA00:00:00.00 242323  658 Davis Bike Club
DNSBrian Pantiga   Folsom, CA00:00:00.00 61633  687 Bicycle Planet
DNSTimothy Roberts   Dixon, CA00:00:00.00 30120  690 Davis Bike Club
DNSAdam Waskow   Fairfax, CA00:00:00.00 219104  696 Whole Athlete
DNSMarvin Zauderer   San Rafael, CA00:00:00.00 175058  698 Taleo Racing
DNSDaniel Brasse (Cat4)   San Mateo, CA00:00:00.00 245111   Third Pillar
DNSBill Harris   Menlo Park, CA00:00:00.00 195746  674 Peninsual Velo - Pomodoro
DNSdavid gagnon   Salinas, CA00:00:00.00 250142  669 mbrt
DNSJoaquin Feliciano   Davis, CA00:00:00.00 271419  667 Davis Bike Club
DNPManuel Calero   San Pablo, CA00:00:00.00 307277  753 Unattached
DNPNathan Trueblood   Davis, CA00:00:00.00 35982  793 Davis Bike Club Race Team
DNPSteven Woo   Los Altos, CA00:00:00.00 38840  697 Third Pillar
DNPXeno Rasmusson   San Ramon, CA00:00:00.00 29197  689 Tri Valley Velo
DNPJeffrey Pallin   Menlo Park, CA00:00:00.00 106496  686 Third Pillar Systems
DNPPatrick Logan   San Ramon, CA00:00:00.00 242583  677 Third Pillar
DNPMichael Kopp   San Francisco, CA00:00:00.00 286893  676 Taleo Racing
DNPMichael Charney   Millbrae, CA00:00:00.00 250113  660 Third Pillar
DNPDavid Haslemann   Folsom, CA00:00:00.00 277664  675 Rio Strada Racing
DNPChris Becker   Orinda, CA00:00:00.00 287692  651 Taleo Racing

Men - Cat 4/5 - Master - 45-99

 Place Points NameCity, StateTime USAC #BibTeam
1370.75Rick Kile   Placerville, CA00:00:00.00 195955  775 Body Concepts
2375.52Victor Furr   Pleasanton, CA00:00:00.00 96225  764 Minimax
3380.29Brent Majors   Clovis, CA00:00:00.00 286527  777 CSC Rubber Soul
4385.06Philip Vrieling   Modesto, CA00:00:00.00 185026  797 Fun Sport Bikes Cycling Team
5389.83Michael Beyers   Danville, CA00:00:00.00 304408  754 Tri_Valley Velo
6394.60Scott Hellam   Fresno, CA00:00:00.00 287510  771 Rubber Soul/CSC
7399.37Robert Kopitzke (1 - Cat4)   Folsom, CA00:00:00.00 96397  776 Body Concepts
8404.14Russell Voss   Tracy, CA00:00:00.00 258026  796 Minimax
9408.91Norrie Quinn   Brentwood, CA00:00:00.00 271110  785 Tri Valley Velo
10413.68Roger Von Rotz   Modesto, CA00:00:00.00 240458  690 Fun Sport Bikes Cycling Team
11418.45John Hawkins   Los Osos, CA00:00:00.00 45436  769 SLO Nexus-Gym One
12423.22Len Tabor   Hollister, CA00:00:00.00 125781  789 Don Chapin/monterey bay racing
13427.99Randy Floyd   Newcastle, CA00:00:00.00 90079  763 Body Concepts
14432.76Matt Conidaris   Gold River, CA00:00:00.00 195944  756 Body Concepts
15437.53Chuck Spiteri   San Mateo, CA00:00:00.00 292488  669 Peninsula Velo/Pomodoro
16442.30Phillip Heiman   Penngrove, CA00:00:00.00 204100  770 Colavita Racing-Norcal
17447.07Robert Montague   Aptos, CA00:00:00.00 276007  779 Team Bicycle Trip / Symantec
18UNKNOWN RIDER   00:00:00.00  748 -------
19456.61Randy Volkmar   S Lake Tahoe, CA00:00:00.00 36779  794 Body Concepts
20461.38John Gerling   Modesto, CA00:00:00.00 218917  766 Fun Sport Bikes Cycling Team
21466.15Steve Cooke   Carson City, NV00:00:00.00 286931  757 Body Concepts
22470.92Thomas Field   Modesto, CA00:00:00.00 219232  761 Fun Sport Bikes Cycling Team
23475.69Bradley Thomas   El Macero, CA00:00:00.00 300596  687 Team Mason Thomas
24480.46David Bryant   Gardnerville, NV00:00:00.00 303973  755 Body Concepts
25485.23Stanley Tsang   Pacifica, CA00:00:00.00 304553  792 Peninsula Velo / Pomodoro
26490.00MCKAY FLORENCE   Loomis, CA00:00:00.00 304916  667 Unattached
27494.77David Metzinger   Livermore, CA00:00:00.00 230083  778 Minimax
28499.54Cory Roay   Belmont, CA00:00:00.00 191125  786 Peninsula Velo/Pomodoro
29504.31Travis Selk   Concord, CA00:00:00.00 242087  788 Tri Valley Velo
30509.08Reese Gary   Pilot Hill, CA00:00:00.00 12902  765 Squadra Abruzzo
31513.85Alfred Kerr   Willits, CA00:00:00.00 262541  774 Fightin' Bobas
32518.62Bradford Hasse   El Dorado Hills, CA00:00:00.00 236804  768 Body Concepts
33523.39Erim Taser   Lodi, CA00:00:00.00 205116  790 Williams Cycling
34528.16Jay Hahn (2 - Cat4)   Oakdale, CA00:00:00.00 255850  767 Fun Sport Bikes Cycling Team
35532.93Greg Elliott (3 - Cat4)   Fremont, CA00:00:00.00 271538  760 Minimax
36537.70Mark Powers   San Mateo, CA00:00:00.00 236460  782 Peninsula Velo/Pomodoro
37542.47David Woodhouse   Lincoln, CA00:00:00.00 272962  799 Victory Velo
38547.24Steven Woo   Los Altos, CA00:00:00.00 38840  697 Third Pillar
39552.01Thomas Preisler   Los Gatos, CA00:00:00.00 294002  783 Los Gatos
40556.78Doug Aiken (4 - Cat4)   Pleasanton, CA00:00:00.00 195391  750 Tri Valley Velo
41561.55Xeno Rasmusson   San Ramon, CA00:00:00.00 29197  689 Tri Valley Velo
42566.32Jim Volsansky   San Ramon, CA00:00:00.00 203442  795 Tri Valley Velo
43571.09Richard Asturias   Pleasanton, CA00:00:00.00 236210  752 Tri Valley Velo
44575.86Philippe Azoulay   San Jose, CA00:00:00.00 207662  753 SJBC
45580.63Brittany JONES   Denver, CO00:00:00.00 363706  773 
46585.40Tom Cutter   Carmichael, CA00:00:00.00 285993  759 Sacramento Golden Wheelmen
47590.17Steve Rosefield   Pleasanton, CA00:00:00.00 298343  787 Tri Valley Velo
DNSDouglas Aldrich   San Jose, CA00:00:00.00 245255  751 SJBC
DNSMark Cusick   Elk Grove, CA00:00:00.00 205419  758 Rio Strada Racing
DNSRick FLOWERDAY   Alameda, CA00:00:00.00 270577  762 Los Gatos
DNSGerald Jeffs   Dublin, CA00:00:00.00 235909  772 Taleo Racing
DNSEdward Price   Aptos, CA00:00:00.00 84614  784 Team Bicycle Trip/Symantec
DNSJames Torrence   Hayward, CA00:00:00.00 55200  791 Eden Bicycles
DNSJames VanDyke   Pleasanton, CA00:00:00.00 286711  793 Tri Valley Velo
DNSJoe Platin   Santa Cruz, CA00:00:00.00 256834   Team Bicycle Trip / Symantec
DNPGreg Prior (Cat4)   San Jose, CA00:00:00.00 287129  624 SJBC
DNPMark Nakamura   Pacifica, CA00:00:00.00 179927  780 Kaiser Permanente/ Team Oaklan
DNPTim Petersen   Alamo00:00:00.00 204058  781 SF Sport & Spine PT Racing
DNPMartin Wensley   Los Gatos, CA00:00:00.00 142214  798 Los Gatos

Men - Junior - 13-14

 Place Points NameCity, StateTime USAC #BibTeam
1248.46Dylan Drummond   Walnut Creek, CA00:00:00.00 265912  953 Tieni Duro
2266.88Zeke Mostov   San Francisco, CA00:00:00.00 294912  962 SJBC
3285.30Stanley Goto   Petaluma, CA00:00:00.00 254829  956 All Sport Team Swift
4303.72Jack Maddux   Fresno00:00:00.00 296879  960 Team Specialized Racing Junior
5322.14Robbie Farrens   Stockton, CA00:00:00.00 289433  955 DJs Produce - Rocket Sports-Tr
6340.56Matthew Valencia   Los Altos, CA00:00:00.00 255576  967 Team Specialized Racing Junior
7358.98Reid Smith   Moraga, CA00:00:00.00 300086  965 Tieni Duro
8377.40Adrien Costa   Los Altos, CA00:00:00.00 296167  951 SJBC
9395.82Ryan Grant   San Francisco, CA00:00:00.00 253950  957 All Sport - Team Swift
10414.24Hunter Olivier   Roseville, CA 281644  963 Diamondback HDXC
11432.66Robert Terra   Lodi, CA00:00:00.00 269793  966 DJ's Produce-Rocket Sports
12451.08Ryan Messersmith   Stockton, CA00:00:00.00 273041  961 DJs Produce - Rocket Sports Ra
13469.50Thomas Duncan   Fremont, CA00:00:00.00 303797  954 Team Fremont/FFBC powered by C
14487.92Jason Saltzman   Menlo Park, CA00:00:00.00 255580  964 Morgan Stanley Smith Barney/Sp
15506.34Kyle Hudson   Morgan Hill, CA00:00:00.00 298469  958 SJBC
16524.76Colin Hug   Menlopark, CA00:00:00.00 306939  959 Morgan Stanley Smith Barney/Sp
17543.18Florian Costa   Los Altos, CA00:00:00.00 300278  952 SJBC
DNSJonathan Christensen   Clements, CA00:00:00.00 250315  950 DJs Produce - Rocket Sports
DNPTyler Hudson   Morganhill, CA00:00:00.00 304414  969 San Jose Bicycle Club
DNPJordan Wolfe   Sanjose, CA00:00:00.00 282654  968 SJBC

Men - Junior - 15-16

 Place Points NameCity, StateTime USAC #BibTeam
1225.28Alexander Freund   Davis, CA00:00:00.00 222322  553 Davis Bike Club
2237.70Alex Howard   Mill Valley, CA00:00:00.00 273094  556 
3250.12Tyler Williams   Shafter, CA00:00:00.00 294531  567 Unattached
4262.54Alistair Eeckman   Berkeley, CA00:00:00.00 281189  552 Team Specialized Racing Junior
5274.96Ian Moore   San Luis Obispo, CA00:00:00.00 297697  562 All Sport-Team Swift
6287.38Tyler Hanson   Orinda, CA00:00:00.00 257206  555 Tieni Duro
7299.80Josef Nygaard   San Francisco, CA00:00:00.00 227889  564 All Sport-Team Swift
8312.22matthew koenig   Sonora, CA00:00:00.00 212479  265 Topsport
9324.64Spence Peterson   Mill Valley, CA00:00:00.00 235691  565 Above Category Racing
10337.06Jordan McElroy   Truckee, CA00:00:00.00 296295  561 TRUCKEE BICYCLE TEAM
11349.48Andrew Biscardi   San Jose, CA00:00:00.00 280347  551 SJBC
12361.90Reese Levine   Orinda, CA00:00:00.00 263998  560 Tieni Duro
13374.32Jack Keane   Mill Valley, CA00:00:00.00 293119  557 
14386.74Ellis Anderson   Moraga, CA00:00:00.00 274504  550 Tieni Duro Junior Cycling Team
15399.16Skyler Taylor   Mill Valley, CA00:00:00.00 271070  566 Above Category Racing
16411.58Chris LaBerge   Napa, CA00:00:00.00 229950  559 Team Specialized Racing Junior
17424.00Henry Nelson   Oakland, CA00:00:00.00 289117  563 Tieni Duro
DNPOscar Gonzalez   San Jose, CA00:00:00.00 303922  554 SJBC
DNPCaleb Knaggs   Lodi, CA00:00:00.00 307241  558 DJ'S Produce/Rocket Sports Rac

Men - Junior - 17-18

 Place Points NameCity, StateTime USAC #BibTeam
1247.59Andreas Freund   Berkeley, CA00:00:00.00 222320  455 Davis Bike Club
2264.96Kenny Strickland   San Ramon, CA00:00:00.00 270965  470 SJBC
3282.33Austin Boswell   Bend, OR00:00:00.00 305158  475 Hot Tubes Junior Development T
4299.70Nick Newcomb   Nicasio, CA00:00:00.00 258299  465 Whole Athlete
5317.07Yuma Koishi   Cupertino, CA00:00:00.00 273567  474 SJBC
6334.44Ryan Gadow   Dublin, CA00:00:00.00 271417  456 SJBC
7351.81AJ Snovel   Sacramento, CA00:00:00.00 272559  469 Davis Bike Club
8369.18David Benkoski   Menlo Park, CA00:00:00.00 271685  478 Team Specialized Racing
9386.55Trevor Larsen   Moraga, CA00:00:00.00 256917  462 Tieni Duro
10403.92Joseph Yoham   San Rafael, CA00:00:00.00 257687  471 Whole Athlete
11421.29Wes Holloway   Dublin Ca00:00:00.00 300531  460 All Sport/Team Swift
12438.66Garrett Hankins   Carmichael, CA00:00:00.00 298571  459 Team City
13456.03Roman Brockley   Forestknolls, CA00:00:00.00 284893  452 Whole Athlete
14473.40Andrew McIntire   Fremont, CA00:00:00.00 247811  463 SJBC
15490.77Vincent Juarez   San Jose, CA00:00:00.00 286414  476 SJBC
16508.14Johnny Mullane   Watsonville, CA00:00:00.00 281204  464 Davis Bike Club
17525.51Kasra Shokat   San Francisco, CA00:00:00.00 301002  466 
18542.88Sven Beer   Fairfax, CA00:00:00.00 298330  450 Whole Athlete
DNSZack Berman   San Francisco, CA00:00:00.00 284981  451 Whole Athlete
DNPJoseph Christensen   Clements, CA00:00:00.00 240832  453 SJBC
DNPDaniel Farinha   San Jose, CA00:00:00.00 240558  454 SJBC
DNPAlexander Gee   Danville, CA00:00:00.00 219922  457 Tieni Duro Jr. Cycling
DNPJames LaBerge   Napa, CA00:00:00.00 221376  461 Team Specialized Racing Junior
DNPBob Siegel   Mill Valley, CA00:00:00.00 279805  467 Above Category Racing
DNPTony Smith   San Rafael, CA00:00:00.00 205657  468 Whole Athlete
DNPBobby Zidek   Chico, CA00:00:00.00 304633  472 Whole Athlete
DNPAndrew Lanier Jr   Gilroy, CA00:00:00.00 226086  473 Team Specialized Racing Junior
DNPAdam Hodes   San Francisco, CA00:00:00.00 219706  477 Tieni Duro Junior Cycling Team
DNPLevi Grabow   Carson City, NV00:00:00.00 204158  458 alta alpina

Women - Cat 4

 Place Points NameCity, StateTime USAC #BibTeam
1454.03Margaret Winder   Lafayette, CA00:00:00.00 237600  749 HDR p/b Lombardi Sports
2456.69Ann Kodani   Mountain View, CA00:00:00.00 143018  722 Team Tibco II
3459.35Jennifer Jordan   Brisbane , CA00:00:00.00 250459  721 Team iPass
4462.01Elizabeth Peres   Folsom, CA00:00:00.00 305938  734 Team Mad Cat
5Ruste Jenkins   00:00:00.00  720 Stevens Bicycles
6467.33Cheryl Shwe   San Francisco, CA00:00:00.00 271152  741 Dolce Vita Cycling
7469.99Johanna Trueblood   Davis, CA00:00:00.00 301301  747 Davis Bike Club
8472.65Katherine Scott-Smith   San Francisco, CA00:00:00.00 295113  739 Early Bird Women's Development
9475.31Leslie Creed   Dixon, CA00:00:00.00 158064  709 Davis Bike Club
10477.97Vanessa Cairns   San Jose, CA00:00:00.00 282467  704 Team TIBCO II
11Lisa Tepper   00:00:00.00  746 Metromint Cycling
12483.29Nicole Slaton   Davis, CA00:00:00.00 287914  742 Metromint Cycling
13485.95Allyson Kutler   San Francisco, CA00:00:00.00 304509  723 Dolce Vita Cycling
14488.61Brett Ortiz   San Francisco, CA00:00:00.00 271361  733 Dolce Vita
15491.27Michelle Melka   Baltimore, MD00:00:00.00 302454  727 Dolce Vita
16493.93Adrienne Belliveau   East Palo Alto, CA00:00:00.00 303420  701 Team Roaring Mouse
17496.59Stella Rosefield   Pleasanton, CA00:00:00.00 304152  737 Forward Motion Race Club
18499.25Kerry Stivaletti   Los Gatos, CA00:00:00.00 239419  745 Ohana Sport
19501.91Tina Huang   San Francisco, CA00:00:00.00 298240  719 Metromint Cycling
20Yuko Soneoka   00:00:00.00  743 Early Bird Women's Development
21507.23Lina Martensson   San Francisco, CA00:00:00.00 292733  724 Metromint Cycling
22UNKNOWN RIDER   00:00:00.00  ??? -------
23512.55Maryann Schrupp   Reno, NV00:00:00.00 288460  738 
24515.21Keila Classen   Palo Alto, CA00:00:00.00 239635  705 Ohana Sport
25517.87Anne Findlay Dowling   Sonora, CA00:00:00.00 238310  712 Early Bird Women's Development
26520.53Kat Zumbach   Oakland, CA00:00:00.00 282471  714 Team TIBCO II
27523.19Jill Eyres   Montara, CA00:00:00.00 282468  710 Team TIBCO II
28525.85Shari Countryman   Foster City, CA00:00:00.00 304790  715 Team TIBCO II
29528.51Katie O'Neill   San Mateo, CA00:00:00.00 291444  732 Team TIBCO II
30531.17Carol Hockridge   Granite Bay, CA00:00:00.00 281107  717 Davis Bike Club
31533.83June Nguyen   Santa Rosa00:00:00.00 277526  729 Early Bird Women's Development
32536.49Michele Feikert   Davis, CA00:00:00.00 286411  711 Davis Bike Club
33Kaya Beeley   00:00:00.00  703 Unattached
34541.81karis Mcfarlane   Livermore, CA00:00:00.00 304075  725 unattached
35544.47Emily COVINGTON   Rohnert Park, CA00:00:00.00 345240  708 
36547.13Deanna McKenzie   Santarosa, CA00:00:00.00 303472  726 Early Bird Women's Development
37549.79Michelle Nightengale   Modesto, CA00:00:00.00 290262  730 Fun Sport Bikes Cycling Club
38552.45Angela Liu   Menlo Park, CA00:00:00.00 250461  716 Team TIBCO II
39555.11Carla Cosentino   Los Gatos, CA00:00:00.00 255734  728 Code Three Womens Cycling
DNSLisa Hern   Los Gatos, CA00:00:00.00 258499   Ohana Sport
DNSMichele Heaton   Santa Cruz, CA00:00:00.00 273618   bike trip symantec
DNSJeanine Bates   San Francisco, CA00:00:00.00 195292  700 Team iPass/CR3
DNSKathleen Boyle   San Francisco, CA00:00:00.00 219755   Team Roaring Mouse
DNSIzumi Couch   Sanfrancisco, CA00:00:00.00 286344   Team Roaring Mouse
DNSChristine Harris   Saint Helena, CA00:00:00.00 287965   Dolce Vita
DNSTracy Hogan   Portola Valley, CA00:00:00.00 246822   Third Pillar
DNSErica Mikesh   Santa Rosa, CA00:00:00.00 253972   Early Bird Women's Development
DNSMarja Nousiainen   Menlo Park, CA00:00:00.00 203255   Team Roaring Mouse
DNPIvy Wang   San Francisco, CA00:00:00.00 291752  748 Team Roaring Mouse
DNPNancy Benedetti   Los Altos, CA00:00:00.00 294317  702 Los Gatos
DNPMeg Ornellas   Merced, CA00:00:00.00 255760  706 University of California-Santa
DNPRenee Coverston   Santa Rosa, CA00:00:00.00 287041  707 Team NorCal Bike Sport
DNPKatherine Hamilton   Fairfax, CA00:00:00.00 253544  713 unattached
DNPMeredith Obendorfer   San Francisco, CA00:00:00.00 222062  718 Dolce Vita Cycling
DNPJennifer Kalich   Aromas00:00:00.00 297754  731 Unattached
DNPLaurie Peterson   Windsor, CA00:00:00.00 297162  735 Team NorCal Bike Sport
DNPBobbiJo Price   Winner Sd00:00:00.00 296075  736 Team TIBCO II
DNPRhonda Serr   Reno00:00:00.00 278473  740 Reno Wheelmen
DNPLisa Stefke   Berkeley, CA00:00:00.00 255542  744 Left Coast Racing Team

Women - Cat 3

 Place Points NameCity, StateTime USAC #BibTeam
1275.72Ruth Winder   Lafayette, CA00:00:00.00 273081  923 Proman Hit Squad
2284.78Nicole Dolney   Sacramento, CA00:00:00.00 287219  902 Touchstone Climbing
3293.84Juliette Olson   Cloverdale, CA00:00:00.00 297368  912 Team Norcal Bike Sport
4302.90Elizabeth Newell   Oakland, CA00:00:00.00 252152  911 MRBerkeley.com p/b Bell Lap
5311.96Katie Kindt   831238391300:00:00.00 160500  906 dolce vita
6321.02Emily Matheu   Oakland, CA00:00:00.00 277109  928 Third Pillar
7330.08Amy Russo   Santa Cruz, CA00:00:00.00 134488  916 Dolce Vita
8339.14Francesca Barsamian   Oakland, CA00:00:00.00 208596  926 Wells Fargo Racing Team
9348.20Danielle Ones   Bishop, CA00:00:00.00 290964  913 Ohana Sport
10357.26Emily Foxman   Mountain View, CA00:00:00.00 255430  903 SugarCRM
11366.32tyler stewart   Novato, CA00:00:00.00 305786  919 LUNA PRO TEAM
12375.38Morgan Robinson   San Francisco, CA00:00:00.00 241047  915 Dolce Vita Cycling
13384.44Lesley Jensen   Benicia, CA00:00:00.00 17778  905 One Team Racing
14393.50Tracy Hogan   Portola Valley, CA00:00:00.00 246822  929 Third Pillar
15402.56Eileen Swanson   San Ramon, CA00:00:00.00 203585  921 Wells Fargo Racing Team
16411.62Rikke Preisler   Redwood City, CA00:00:00.00 293725  914 Los Gatos
17420.68Jennifer Zierke   Millbrae, CA00:00:00.00 275670  924 Colavita/Sutter Home Northern
18429.74April Hamlin   El Dorado Hills, CA00:00:00.00 266244  904 Touchstone Climbing
19438.80Josephine Morgan   Oakland, CA00:00:00.00 242553  910 Los Gatos
20447.86Birgit Cory   San Francisco, CA00:00:00.00 224694  932 Third Pillar
21456.92Jillian Kollman   Elk Grove, CA00:00:00.00 258243  908 Team Mad Cat
22465.98Mason Cornelius   Dublin, CA00:00:00.00 268258  931 Code Three Womens Cycling
23475.04Melissa Schultz   Oakland, CA00:00:00.00 238127  917 Vanderkitten Racing
24484.10Jennifer Barlow   Benicia, CA00:00:00.00 240797  933 Precision Bicycles/Team Precis
DNSKimberly Sudbrink   00:00:00.00  920 Team Dolce Vita
DNSCathy Crawford   Santa Rosa, CA00:00:00.00 41996  900 Team NorCalBike Sport
DNSKarena Shannon   Castro Valley, CA00:00:00.00 266333  918 iPass/Code 3 Racing
DNSKim Ladd   Palo Alto, CA00:00:00.00 250460  909 Code 3 Racing
DNPVanessa deGier   Santa Rosa, CA00:00:00.00 255469  901 
DNPSonja Klein   Oakland, CA00:00:00.00 272558  907 Left Coast Racing Team
DNPAmy Willis   San Francisco, CA00:00:00.00 193106  922 CRC/Poggio
DNPRita Szeto   Crockett, CA00:00:00.00 195322  925 Touchstone Climbing
DNPCarmen Elliott   San Jose, CA00:00:00.00 106103  927 OHANA Sport/Ducati
DNPBess Tonkinson   Redwood City, CA00:00:00.00 204207  930 Metromint Cycling

Women - Cat 1/2

 Place Points NameCity, StateTime USAC #BibTeam
1161.91Rebecca Much   Fort Collins, CO00:00:00.00 192744  819 Team TIBCO
2168.82Olivia Dillon   Fairfax, CA00:00:00.00 232172  845 Specialied Designs for Women /
3Devon Haskell   00:00:00.00  808 
4182.64Kristen LaSasso   Miami, FL00:00:00.00 151408  811 Team TIBCO
5189.55Amanda Miller   Fort Collins, CO00:00:00.00 228513  816 Team TIBCO
6196.46Jane Despas   Menlo Park, CA00:00:00.00 105201  805 Yahoo! Cycling Team
7203.37Molly Van Houweling   Berkeley, CA00:00:00.00 201051  834 Metromint Cycling
8210.28Brooke Miller (1 - Cat1)   Sebastopol, CA00:00:00.00 196453  817 Team TIBCO
9217.19Katharine Carroll (2 - Cat1)   Fairfax, CA00:00:00.00 212327  842 Proman Hit Squad
10224.10Samantha Schneider   Milwaukee, WI00:00:00.00 170980  824 Team TIBCO
11231.01Mary Elizabeth Maroon   Sacramento, CA00:00:00.00 219555  841 Touchstone Climbing
12Shoshauna LAXSON   00:00:00.00  812 Trek Red Truck Racing Presente
13244.83Amanda Seigle   Citrus Heights, CA00:00:00.00 203755  825 Metromint Cycling
14251.74Yukie Nakamura (1 - Cat2)   Los Altos, CA00:00:00.00 179928  836 Metromint Cycling
15258.65Kim Wik   Fremont, CA00:00:00.00 254251  832 Team iPass
16265.56Lindsay Myers   Loma Linda, CA00:00:00.00 272063  838 Webcor Builders Cycling Team
17272.47Rae Brownsberger   San Francisco, CA00:00:00.00 256152  843 Metromint Cycling
18279.38Annie Malouin   Sacramento, CA00:00:00.00 188292  815 Wells Fargo Racing Team
19286.29Anny Henry (2 - Cat2)   Mountain View, CA00:00:00.00 238246  835 Metromint Cycling
20293.20Elis Bradshaw   Oakland, CA00:00:00.00 208125  802 Touchstone Climbing
21300.11Stacy Sims   Menlo Park, CA00:00:00.00 261429  826 
22307.02Jerika Hutchinson   Mount Shasta, CA00:00:00.00 219674  809 
23313.93Meredith Miller   Boulder, CO00:00:00.00 143575  818 Team TIBCO
24320.84Emma MACKIE   Pescadero, CA00:00:00.00 334428  814 
25327.75Gina Lowe (3 - Cat2)   Redding, CA00:00:00.00 207849  813 Touchstone Climbing
DNSPatricia Black   San Luis Obispo, CA00:00:00.00 72039  801 Morgan Stanley/Team Spine/Spec
DNPBirgit Cory   San Francisco, CA00:00:00.00 224694  844 Third Pillar
DNPLauren Hecht   Mountain View, CA00:00:00.00 261693  840 Webcor/Alto Velo
DNPMaura Kinsella   Boulder, CO00:00:00.00 289951  839 Webcor/Alto Velo
DNPEmily Kachorek (Cat1)   Sacramento, CA00:00:00.00 167636  837 Wells Fargo Racing Team
DNPJennifer Piasky   Charlotte, NC00:00:00.00 257256  833 Carolina Flyers
DNPHanan Alves-Hyde   Albany, CA00:00:00.00 234966  828 Proman Hit Squad
DNPKimberly White   00:00:00.00  827 Dolce Vita Cycling
DNPRebecca Rising   Yosemite, CA00:00:00.00 197841  823 
DNPHeather Pryor   00:00:00.00  822 
DNPJennie Phillips   Danville, CA00:00:00.00 203722  821 Wells Fargo Racing Team
DNPHeather Nielson   Seattle, WA00:00:00.00 237346  820 Touchstone Climbing Elite Wome
DNPCarol Irving   Woodland, CA00:00:00.00 17419  810 Touchstone Climbing
DNPMegan Guarnier   Mountain View, CA00:00:00.00 210981  807 
DNPCody Graf (Cat2)   Sacramento, CA00:00:00.00 248416  806 Wells Fargo Racing Team
DNPMarissa Axell   El Cerrito, CA00:00:00.00 269569  800 Touchstone Climbing Systems Wo
DNPsusannah breen   Pleasant Hill, CA00:00:00.00 251128  803 wells fargo racing team
DNPBeverly Chaney   Carmel, CA00:00:00.00 221127  804 Team Roaring Mouse

Women - Junior - 13-14

 Place Points NameCity, StateTime USAC #BibTeam
1540.00Katrina Howard   Fresno, CA00:00:00.00 231847  252 Vapor Racing
2556.67Isabel Gonzalez   San Jose, CA00:00:00.00 304501  250 SJBC
3573.34Edith Lopez   Sanjose, CA00:00:00.00 304671  254 SJBC
4590.01Michelle Hill   Campbell, CA00:00:00.00 280088  251 Los Gatos
DNSClaire Jensen   Los Altos, CA00:00:00.00 248452  253 Peanut Butter & Co/2012

Women - Junior - 15-16

 Place Points NameCity, StateTime USAC #BibTeam
1479.51Page Robertson   Oakland, CA00:00:00.00 291028  261 Tieni Duro
2516.34Dominique van den Dries   Los Gatos, CA00:00:00.00 255641  263 Peanut Butter Twenty12
3553.17Rebecca Hill   Campbell, CA00:00:00.00 280087  260 Los Gatos
4590.00Fiona Winder   Lafayette, CA00:00:00.00 308071  264 
DNSRamona Sovereign   Sacramento, CA00:00:00.00 286346  262 Kinetic Cycles

Women - Junior - 17-18

 Place Points NameCity, StateTime USAC #BibTeam
1540.00Briana Mommer   Fresno, CA00:00:00.00 266008  284 
2556.67Alicia Halpern   Alameda, CA00:00:00.00 257120  280 Tieni Duro
3573.34Taylor Meilahn   Antioch, CA00:00:00.00 196485  281 SJBC
4590.01Elisabeth Scheder-Beschin   Cotati, CA00:00:00.00 307274  283 Early Bird
DNSTaylor Meilahn   Antioch, CA00:00:00.00 196485  282 SJBC

Report missing or incorrect license numbers

Volkswagen
Bonk BreakerUSACDFCUORESierra NevadaSpyShimano
UCI USA Cycling is the official governing body for all disciplines of competitive cycling in the United States. The 501c3, membership-based organization aims both to achieve sustained success in international cycling competition and to grow competitive cycling in America while delivering an exceptional customer experience.
View Children's Online Privacy Protection Policy
US Olympic Committee